I-5 : North of Panoche Road Atmospheric Data: 03/22/2019 Summary  Detailed Graphs  Station List

  Temperature     Wind Precipitation Visibility
Timestamp Wet
Bulb
Dew-
point
24-hr
Max
24-hr
Min
Relative
Humidity
Atmospheric
Pressure
Avg
Speed
Avg
Dir
Spot
Speed
Spot
Dir
Max
Speed
Max
Dir
  Rate Situation Start End 1 hr 3 hr 6 hr 12 hr 24 hr   Situation
Date Time °F °F °F °F % in Hg mph ° mph ° mph ° Y/N in/hr text Date Time Date Time in in in in in mi text
03/22/2019 12:00 AM 45.32 39.20 64.76 43.16 65.0 x 6.26 SW 6.04 SW 10.74 SW No Not Reported No Precipitation     x x Not Reported Not Reported Not Reported 10.00 Clear
03/22/2019 12:01 AM 45.32 39.38 64.76 43.16 65.0 x 6.49 SW 9.17 SW 10.74 SW No Not Reported No Precipitation     x x Not Reported Not Reported Not Reported 10.00 Clear
03/22/2019 12:02 AM 45.32 39.56 64.76 43.16 65.0 x 6.93 SW 6.26 SW 10.74 SW No Not Reported No Precipitation     x x Not Reported Not Reported Not Reported 10.00 Clear
03/22/2019 12:03 AM 45.32 39.38 64.76 43.16 65.0 x 7.83 SW 8.05 SW 10.74 SW No Not Reported No Precipitation     x x Not Reported Not Reported Not Reported 10.00 Clear
03/22/2019 12:04 AM 45.32 39.38 64.76 43.16 65.0 x 7.61 SW 5.14 SW 10.74 SW No Not Reported No Precipitation     x x Not Reported Not Reported Not Reported 10.00 Clear
03/22/2019 12:05 AM 45.32 39.56 64.76 43.16 65.0 x 6.93 SW 5.37 S 10.74 SW No Not Reported No Precipitation     x x Not Reported Not Reported Not Reported 10.00 Clear
03/22/2019 12:06 AM 45.50 39.56 64.76 43.16 65.0 x 6.26 SW 8.72 SW 10.74 SW No Not Reported No Precipitation     x x Not Reported Not Reported Not Reported 10.00 Clear
03/22/2019 12:07 AM 45.32 39.56 64.76 43.16 65.0 x 7.16 SW 6.26 SW 10.74 SW No Not Reported No Precipitation     x x Not Reported Not Reported Not Reported 10.00 Clear
03/22/2019 12:08 AM 45.32 39.56 64.76 43.16 66.0 x 7.16 SW 8.05 SW 10.51 SW No Not Reported No Precipitation     x x Not Reported Not Reported Not Reported 10.00 Clear
03/22/2019 12:09 AM 45.32 39.38 64.76 43.16 65.0 x 7.38 SW 7.38 SW 10.74 SW No Not Reported No Precipitation     x x Not Reported Not Reported Not Reported 10.00 Clear
03/22/2019 12:11 AM 45.32 39.56 64.76 43.16 66.0 x 7.83 SW 5.59 SW 12.53 SW No Not Reported No Precipitation     x x Not Reported Not Reported Not Reported 10.00 Clear
03/22/2019 12:12 AM 45.32 39.56 64.76 43.16 66.0 x 7.61 SW 10.07 SW 12.53 SW No Not Reported No Precipitation     x x Not Reported Not Reported Not Reported 10.00 Clear
03/22/2019 12:14 AM 45.32 39.74 64.76 43.16 66.0 x 6.71 SW 5.59 SW 12.53 SW No Not Reported No Precipitation     x x Not Reported Not Reported Not Reported 10.00 Clear
03/22/2019 12:15 AM 45.32 39.92 64.76 43.16 67.0 x 6.93 SW 9.62 SW 12.53 SW No Not Reported No Precipitation     x x Not Reported Not Reported Not Reported 10.00 Clear
03/22/2019 12:16 AM 45.32 39.74 64.76 43.16 67.0 x 7.38 SW 7.38 SW 12.53 SW No Not Reported No Precipitation     x x Not Reported Not Reported Not Reported 10.00 Clear
03/22/2019 12:17 AM 45.32 39.74 64.76 43.16 67.0 x 6.93 SW 6.49 SW 12.53 SW No Not Reported No Precipitation     x x Not Reported Not Reported Not Reported 10.00 Clear
03/22/2019 12:18 AM 45.32 39.74 64.76 43.16 67.0 x 6.93 SW 9.40 SW 12.53 SW No Not Reported No Precipitation     x x Not Reported Not Reported Not Reported 10.00 Clear
03/22/2019 12:19 AM 45.32 39.92 64.76 43.16 67.0 x 7.61 SW 10.07 SW 12.53 SW No Not Reported No Precipitation     x x Not Reported Not Reported Not Reported 10.00 Clear
03/22/2019 12:20 AM 45.14 39.74 64.76 43.16 67.0 x 8.05 SW 5.37 SW 11.18 SW No Not Reported No Precipitation     x x Not Reported Not Reported Not Reported 10.00 Clear
03/22/2019 12:21 AM 45.32 39.74 64.76 43.16 67.0 x 7.61 SW 9.17 SW 11.18 SW No Not Reported No Precipitation     x x Not Reported Not Reported Not Reported 10.00 Clear
03/22/2019 12:22 AM 45.32 39.74 64.76 43.16 67.0 x 7.38 SW 9.62 S 10.74 SW No Not Reported No Precipitation     x x Not Reported Not Reported Not Reported 10.00 Clear
03/22/2019 12:23 AM 45.14 39.74 64.76 43.16 67.0 x 7.83 SW 7.61 SW 10.74 SW No Not Reported No Precipitation     x x Not Reported Not Reported Not Reported 10.00 Clear
03/22/2019 12:24 AM 45.32 39.74 64.76 43.16 67.0 x 7.61 SW 8.72 SW 12.30 SW No Not Reported No Precipitation     x x Not Reported Not Reported Not Reported 10.00 Clear
03/22/2019 12:25 AM 45.32 39.74 64.76 43.16 67.0 x 6.93 SW 4.70 SW 12.30 SW No Not Reported No Precipitation     x x Not Reported Not Reported Not Reported 10.00 Clear
03/22/2019 12:26 AM 45.32 39.74 64.76 43.16 67.0 x 6.71 SW 7.61 S 12.30 SW No Not Reported No Precipitation     x x Not Reported Not Reported Not Reported 10.00 Clear
03/22/2019 12:27 AM 45.32 39.74 64.76 43.16 67.0 x 6.26 SW 2.46 SW 12.30 SW No Not Reported No Precipitation     x x Not Reported Not Reported Not Reported 10.00 Clear
03/22/2019 12:29 AM 45.14 39.74 64.76 43.16 67.0 x 6.71 SW 7.16 SW 12.30 SW No Not Reported No Precipitation     x x Not Reported Not Reported Not Reported 10.00 Clear
03/22/2019 12:30 AM 45.14 39.74 64.76 43.16 67.0 x 6.49 SW 8.05 SW 12.30 SW No Not Reported No Precipitation     x x Not Reported Not Reported Not Reported 10.00 Clear
03/22/2019 12:31 AM 45.14 39.92 64.76 43.16 67.0 x 6.04 SW 4.70 SW 12.30 SW No Not Reported No Precipitation     x x Not Reported Not Reported Not Reported 10.00 Clear
03/22/2019 12:32 AM 45.14 39.92 64.76 43.16 68.0 x 6.04 SW 5.59 SW 12.30 SW No Not Reported No Precipitation     x x Not Reported Not Reported Not Reported 10.00 Clear
03/22/2019 12:33 AM 44.96 39.56 64.76 43.16 67.0 x 6.04 SW 8.95 SW 12.30 SW No Not Reported No Precipitation     x x Not Reported Not Reported Not Reported 10.00 Clear
03/22/2019 12:34 AM 44.96 39.92 64.76 43.16 68.0 x 6.04 SW 8.95 SW 11.41 SW No Not Reported No Precipitation     x x Not Reported Not Reported Not Reported 10.00 Clear
03/22/2019 12:35 AM 45.14 39.74 64.76 43.16 67.0 x 6.93 SW 5.14 SW 11.63 SW No Not Reported No Precipitation     x x Not Reported Not Reported Not Reported 10.00 Clear
03/22/2019 12:37 AM 45.14 39.74 64.76 43.16 67.0 x 7.61 SW 7.61 SW 11.63 SW No Not Reported No Precipitation     x x Not Reported Not Reported Not Reported 10.00 Clear
03/22/2019 12:38 AM 44.96 39.56 64.76 43.16 67.0 x 6.26 SW 5.59 SW 11.63 SW No Not Reported No Precipitation     x x Not Reported Not Reported Not Reported 10.00 Clear
03/22/2019 12:39 AM 45.14 39.38 64.76 43.16 67.0 x 6.71 SW 7.61 SW 11.63 SW No Not Reported No Precipitation     x x Not Reported Not Reported Not Reported 10.00 Clear
03/22/2019 12:40 AM 44.96 39.38 64.76 43.16 67.0 x 6.49 SW 6.26 SW 11.63 SW No Not Reported No Precipitation     x x Not Reported Not Reported Not Reported 10.00 Clear
03/22/2019 12:41 AM 44.96 39.56 64.76 43.16 67.0 x 5.37 SW 9.17 SW 11.63 SW No Not Reported No Precipitation     x x Not Reported Not Reported Not Reported 10.00 Clear
03/22/2019 12:42 AM 44.96 39.38 64.76 43.16 66.0 x 5.82 SW 7.38 SW 11.63 SW No Not Reported No Precipitation     x x Not Reported Not Reported Not Reported 10.00 Clear
03/22/2019 12:44 AM 44.96 39.20 64.76 43.16 66.0 x 6.93 SW 5.14 SW 11.63 SW No Not Reported No Precipitation     x x Not Reported Not Reported Not Reported 10.00 Clear
03/22/2019 12:45 AM 44.96 39.20 64.76 43.16 66.0 x 6.26 SW 6.93 S 10.74 SW No Not Reported No Precipitation     x x Not Reported Not Reported Not Reported 10.00 Clear
03/22/2019 12:46 AM 44.78 39.20 64.76 43.16 66.0 x 6.26 SW 6.04 SW 10.29 SW No Not Reported No Precipitation     x x Not Reported Not Reported Not Reported 10.00 Clear
03/22/2019 12:47 AM 44.96 39.20 64.76 43.16 66.0 x 7.16 SW 8.05 SW 10.29 SW No Not Reported No Precipitation     x x Not Reported Not Reported Not Reported 10.00 Clear
03/22/2019 12:48 AM 44.78 39.20 64.76 43.16 66.0 x 6.93 SW 6.93 SW 10.74 S No Not Reported No Precipitation     x x Not Reported Not Reported Not Reported 10.00 Clear
03/22/2019 12:49 AM 44.96 39.38 64.76 43.16 67.0 x 6.26 SW 7.38 SW 10.74 S No Not Reported No Precipitation     x x Not Reported Not Reported Not Reported 10.00 Clear
03/22/2019 12:50 AM 44.96 39.38 64.76 43.16 67.0 x 6.71 SW 7.61 SW 10.74 S No Not Reported No Precipitation     x x Not Reported Not Reported Not Reported 10.00 Clear
03/22/2019 12:51 AM 44.96 39.38 64.76 43.16 67.0 x 6.93 S 3.36 S 11.41 SW No Not Reported No Precipitation     x x Not Reported Not Reported Not Reported 10.00 Clear
03/22/2019 12:52 AM 44.78 39.56 64.76 43.16 67.0 x 6.26 SW 8.05 SW 11.41 SW No Not Reported No Precipitation     x x Not Reported Not Reported Not Reported 10.00 Clear
03/22/2019 12:53 AM 44.96 39.74 64.76 43.16 68.0 x 6.49 SW 7.83 S 11.41 SW No Not Reported No Precipitation     x x Not Reported Not Reported Not Reported 10.00 Clear
03/22/2019 12:54 AM 44.78 39.38 64.76 43.16 68.0 x 6.93 SW 9.40 SW 11.41 SW No Not Reported No Precipitation     x x Not Reported Not Reported Not Reported 10.00 Clear
03/22/2019 12:56 AM 44.78 39.38 64.76 43.16 68.0 x 6.26 SW 7.16 SW 11.41 SW No Not Reported No Precipitation     x x Not Reported Not Reported Not Reported 10.00 Clear
03/22/2019 12:57 AM 44.78 39.56 64.76 43.16 68.0 x 5.59 SW 5.82 S 11.41 SW No Not Reported No Precipitation     x x Not Reported Not Reported Not Reported 10.00 Clear
03/22/2019 12:58 AM 44.60 39.38 64.76 43.16 68.0 x 5.82 SW 6.04 SW 11.41 SW No Not Reported No Precipitation     x x Not Reported Not Reported Not Reported 10.00 Clear
03/22/2019 12:59 AM 44.60 39.20 64.76 43.16 68.0 x 6.04 SW 4.92 SW 11.41 SW No Not Reported No Precipitation     x x Not Reported Not Reported Not Reported 10.00 Clear
03/22/2019 01:01 AM 44.60 39.20 64.76 43.16 67.0 x 6.71 SW 6.26 SW 10.07 SW No Not Reported No Precipitation     x x Not Reported Not Reported Not Reported 10.00 Clear
03/22/2019 01:02 AM 44.78 39.38 64.76 43.16 68.0 x 5.82 SW 4.47 SW 10.07 SW No Not Reported No Precipitation     x x Not Reported Not Reported Not Reported 10.00 Clear
03/22/2019 01:03 AM 44.78 39.20 64.76 43.16 68.0 x 5.37 SW 8.50 SW 10.07 SW No Not Reported No Precipitation     x x Not Reported Not Reported Not Reported 10.00 Clear
03/22/2019 01:04 AM 44.60 39.20 64.76 43.16 67.0 x 6.26 SW 8.72 SW 10.07 SW No Not Reported No Precipitation     x x Not Reported Not Reported Not Reported 10.00 Clear
03/22/2019 01:05 AM 44.60 39.02 64.76 43.16 67.0 x 6.71 SW 7.83 SW 10.07 SW No Not Reported No Precipitation     x x Not Reported Not Reported Not Reported 10.00 Clear
03/22/2019 01:06 AM 44.60 39.02 64.76 43.16 67.0 x 6.49 SW 8.28 SW 10.07 SW No Not Reported No Precipitation     x x Not Reported Not Reported Not Reported 10.00 Clear
03/22/2019 01:07 AM 44.60 39.02 64.76 43.16 67.0 x 6.49 SW 9.84 SW 10.07 SW No Not Reported No Precipitation     x x Not Reported Not Reported Not Reported 10.00 Clear
03/22/2019 01:08 AM 44.60 39.02 64.76 43.16 67.0 x 6.26 SW 5.14 W 10.07 SW No Not Reported No Precipitation     x x Not Reported Not Reported Not Reported 10.00 Clear
03/22/2019 01:09 AM 44.60 39.02 64.76 43.16 67.0 x 6.26 SW 7.16 SW 10.07 SW No Not Reported No Precipitation     x x Not Reported Not Reported Not Reported 10.00 Clear
03/22/2019 01:10 AM 44.60 39.20 64.76 43.16 67.0 x 6.49 SW 5.59 SW 10.07 SW No Not Reported No Precipitation     x x Not Reported Not Reported Not Reported 10.00 Clear
03/22/2019 01:11 AM 44.60 39.02 64.76 43.16 67.0 x 6.26 SW 4.03 SW 10.07 SW No Not Reported No Precipitation     x x Not Reported Not Reported Not Reported 10.00 Clear
03/22/2019 01:12 AM 44.60 39.02 64.76 43.16 67.0 x 6.26 SW 8.72 SW 10.07 SW No Not Reported No Precipitation     x x Not Reported Not Reported Not Reported 10.00 Clear
03/22/2019 01:13 AM 44.60 39.02 64.76 43.16 67.0 x 7.38 SW 5.59 SW 11.63 SW No Not Reported No Precipitation     x x Not Reported Not Reported Not Reported 10.00 Clear
03/22/2019 01:14 AM 44.60 38.84 64.76 43.16 67.0 x 6.71 SW 7.38 SW 11.63 SW No Not Reported No Precipitation     x x Not Reported Not Reported Not Reported 10.00 Clear
03/22/2019 01:15 AM 44.42 38.84 64.76 43.16 66.0 x 5.59 SW 4.92 SW 11.63 SW No Not Reported No Precipitation     x x Not Reported Not Reported Not Reported 10.00 Clear
03/22/2019 01:16 AM 44.60 39.02 64.76 43.16 67.0 x 6.04 SW 5.59 S 11.63 SW No Not Reported No Precipitation     x x Not Reported Not Reported Not Reported 10.00 Clear
03/22/2019 01:17 AM 44.60 39.20 64.76 43.16 67.0 x 5.37 SW 6.93 SW 11.63 SW No Not Reported No Precipitation     x x Not Reported Not Reported Not Reported 10.00 Clear
03/22/2019 01:18 AM 44.60 39.20 64.76 43.16 68.0 x 5.37 SW 6.71 SW 11.63 SW No Not Reported No Precipitation     x x Not Reported Not Reported Not Reported 10.00 Clear
03/22/2019 01:20 AM 44.42 39.20 64.76 43.16 68.0 x 5.59 SW 7.38 SW 11.63 SW No Not Reported No Precipitation     x x Not Reported Not Reported Not Reported 10.00 Clear
03/22/2019 01:21 AM 44.42 39.20 64.76 43.16 68.0 x 6.26 SW 6.04 SW 11.63 SW No Not Reported No Precipitation     x x Not Reported Not Reported Not Reported 10.00 Clear
03/22/2019 01:22 AM 44.42 38.84 64.76 43.16 68.0 x 6.26 SW 7.38 SW 9.17 SW No Not Reported No Precipitation     x x Not Reported Not Reported Not Reported 10.00 Clear
03/22/2019 01:23 AM 44.42 39.02 64.76 43.16 68.0 x 6.04 SW 6.26 SW 9.17 SW No Not Reported No Precipitation     x x Not Reported Not Reported Not Reported 10.00 Clear
03/22/2019 01:24 AM 44.24 39.02 64.76 43.16 68.0 x 6.26 SW 7.83 SW 9.17 SW No Not Reported No Precipitation     x x Not Reported Not Reported Not Reported 10.00 Clear
03/22/2019 01:25 AM 44.24 38.84 64.76 43.16 68.0 x 6.04 SW 7.38 SW 9.17 SW No Not Reported No Precipitation     x x Not Reported Not Reported Not Reported 10.00 Clear
03/22/2019 01:26 AM 44.24 38.84 64.76 43.16 68.0 x 6.26 SW 6.04 SW 9.17 SW No Not Reported No Precipitation     x x Not Reported Not Reported Not Reported 10.00 Clear
03/22/2019 01:27 AM 44.24 38.84 64.76 43.16 67.0 x 6.04 SW 7.83 SW 9.17 SW No Not Reported No Precipitation     x x Not Reported Not Reported Not Reported 10.00 Clear
03/22/2019 01:28 AM 44.24 38.84 64.76 43.16 68.0 x 5.59 SW 5.37 SW 9.17 SW No Not Reported No Precipitation     x x Not Reported Not Reported Not Reported 10.00 Clear
03/22/2019 01:29 AM 44.24 38.84 64.76 43.16 68.0 x 5.59 SW 3.80 SW 9.17 SW No Not Reported No Precipitation     x x Not Reported Not Reported Not Reported 10.00 Clear
03/22/2019 01:30 AM 44.24 38.84 64.76 43.16 68.0 x 5.82 SW 6.04 SW 10.07 SW No Not Reported No Precipitation     x x Not Reported Not Reported Not Reported 10.00 Clear
03/22/2019 01:31 AM 44.24 38.84 64.76 43.16 68.0 x 6.04 SW 4.70 SW 10.07 SW No Not Reported No Precipitation     x x Not Reported Not Reported Not Reported 10.00 Clear
03/22/2019 01:32 AM 44.24 38.66 64.76 43.16 67.0 x 6.49 SW 7.38 SW 10.51 SW No Not Reported No Precipitation     x x Not Reported Not Reported Not Reported 10.00 Clear
03/22/2019 01:33 AM 44.24 38.84 64.76 43.16 67.0 x 6.49 SW 3.13 SW 10.51 SW No Not Reported No Precipitation     x x Not Reported Not Reported Not Reported 10.00 Clear
03/22/2019 01:34 AM 44.06 38.48 64.76 43.16 67.0 x 6.49 SW 9.17 SW 10.51 SW No Not Reported No Precipitation     x x Not Reported Not Reported Not Reported 10.00 Clear
03/22/2019 01:35 AM 44.24 38.66 64.76 43.16 67.0 x 7.16 SW 4.92 SW 10.96 SW No Not Reported No Precipitation     x x Not Reported Not Reported Not Reported 10.00 Clear
03/22/2019 01:36 AM 44.24 38.48 64.76 43.16 66.0 x 7.16 SW 8.95 SW 10.96 SW No Not Reported No Precipitation     x x Not Reported Not Reported Not Reported 10.00 Clear
03/22/2019 01:37 AM 44.24 38.48 64.76 43.16 66.0 x 7.16 SW 8.05 SW 10.96 SW No Not Reported No Precipitation     x x Not Reported Not Reported Not Reported 10.00 Clear
03/22/2019 01:38 AM 44.24 38.48 64.76 43.16 66.0 x 7.61 SW 11.41 SW 11.86 SW No Not Reported No Precipitation     x x Not Reported Not Reported Not Reported 10.00 Clear
03/22/2019 01:39 AM 44.24 38.48 64.76 43.16 66.0 x 7.16 SW 9.62 SW 11.86 SW No Not Reported No Precipitation     x x Not Reported Not Reported Not Reported 10.00 Clear
03/22/2019 01:40 AM 44.24 38.48 64.76 43.16 66.0 x 7.38 SW 6.49 SW 11.86 SW No Not Reported No Precipitation     x x Not Reported Not Reported Not Reported 10.00 Clear
03/22/2019 01:41 AM 44.24 38.30 64.76 43.16 66.0 x 8.28 SW 10.07 SW 12.30 SW No Not Reported No Precipitation     x x Not Reported Not Reported Not Reported 10.00 Clear
03/22/2019 01:42 AM 44.24 38.30 64.76 43.16 65.0 x 8.28 SW 5.59 SW 12.30 SW No Not Reported No Precipitation     x x Not Reported Not Reported Not Reported 10.00 Clear
03/22/2019 01:43 AM 44.24 38.30 64.76 43.16 65.0 x 7.61 SW 9.40 S 12.30 SW No Not Reported No Precipitation     x x Not Reported Not Reported Not Reported 10.00 Clear
03/22/2019 01:44 AM 44.24 38.12 64.76 43.16 65.0 x 7.16 SW 7.38 SW 12.30 SW No Not Reported No Precipitation     x x Not Reported Not Reported Not Reported 10.00 Clear
03/22/2019 01:45 AM 44.24 38.12 64.76 43.16 65.0 x 6.04 SW 6.93 SW 12.30 SW No Not Reported No Precipitation     x x Not Reported Not Reported Not Reported 10.00 Clear
03/22/2019 01:46 AM 44.24 38.12 64.76 43.16 65.0 x 6.49 SW 9.40 SW 12.30 SW No Not Reported No Precipitation     x x Not Reported Not Reported Not Reported 10.00 Clear
03/22/2019 01:47 AM 44.24 38.12 64.76 43.16 65.0 x 7.83 SW 8.50 SW 12.30 SW No Not Reported No Precipitation     x x Not Reported Not Reported Not Reported 10.00 Clear
03/22/2019 01:48 AM 44.24 38.12 64.76 43.16 65.0 x 7.61 SW 3.58 S 12.30 SW No Not Reported No Precipitation     x x Not Reported Not Reported Not Reported 10.00 Clear
03/22/2019 01:49 AM 44.24 38.12 64.76 43.16 65.0 x 6.93 SW 6.26 SW 12.30 SW No Not Reported No Precipitation     x x Not Reported Not Reported Not Reported 10.00 Clear
03/22/2019 01:50 AM 44.24 38.12 64.76 43.16 65.0 x 6.93 SW 9.84 SW 12.30 SW No Not Reported No Precipitation     x x Not Reported Not Reported Not Reported 10.00 Clear
03/22/2019 01:51 AM 44.24 38.12 64.76 43.16 64.0 x 7.38 SW 7.61 SW 11.63 SW No Not Reported No Precipitation     x x Not Reported Not Reported Not Reported 10.00 Clear
03/22/2019 01:52 AM 44.24 x 64.76 43.16 65.0 x 7.61 SW 5.14 SW 11.63 SW No Not Reported No Precipitation     x x Not Reported Not Reported Not Reported 10.00 Clear
03/22/2019 01:53 AM 44.24 38.12 64.76 43.16 65.0 x 6.71 SW 6.93 SW 11.63 SW No Not Reported No Precipitation     x x Not Reported Not Reported Not Reported 10.00 Clear
03/22/2019 01:54 AM 44.06 38.12 64.76 43.16 65.0 x 6.49 SW 6.04 SW 11.63 SW No Not Reported No Precipitation     x x Not Reported Not Reported Not Reported 10.00 Clear
03/22/2019 01:55 AM 44.24 38.12 64.76 43.16 65.0 x 6.93 SW 6.49 SW 11.63 SW No Not Reported No Precipitation     x x Not Reported Not Reported Not Reported 10.00 Clear
03/22/2019 01:57 AM 44.24 37.94 64.76 43.16 64.0 x 7.83 SW 10.51 SW 11.63 SW No Not Reported No Precipitation     x x Not Reported Not Reported Not Reported 10.00 Clear
03/22/2019 01:58 AM 44.06 37.94 64.76 43.16 64.0 x 8.05 SW 10.96 SW 11.63 SW No Not Reported No Precipitation     x x Not Reported Not Reported Not Reported 10.00 Clear
03/22/2019 01:59 AM 44.06 37.94 64.76 43.16 64.0 x 8.28 SW 6.93 SW 11.63 SW No Not Reported No Precipitation     x x Not Reported Not Reported Not Reported 10.00 Clear
03/22/2019 02:00 AM 44.24 37.94 64.76 43.16 64.0 x 7.83 SW 8.72 SW 11.63 SW No Not Reported No Precipitation     x x Not Reported Not Reported Not Reported 10.00 Clear
03/22/2019 02:01 AM 44.06 37.76 64.76 43.16 64.0 x 8.28 SW 8.28 SW 13.20 SW No Not Reported No Precipitation     x x Not Reported Not Reported Not Reported 10.00 Clear
03/22/2019 02:02 AM 44.06 37.76 64.76 43.16 63.0 x 8.95 SW 8.05 SW 13.20 SW No Not Reported No Precipitation     x x Not Reported Not Reported Not Reported 10.00 Clear
03/22/2019 02:03 AM 44.06 37.58 64.76 43.16 63.0 x 7.83 SW 8.95 W 13.20 SW No Not Reported No Precipitation     x x Not Reported Not Reported Not Reported 10.00 Clear
03/22/2019 02:04 AM 44.24 37.58 64.76 43.16 63.0 x 6.26 SW 7.16 SW 13.20 SW No Not Reported No Precipitation     x x Not Reported Not Reported Not Reported 10.00 Clear
03/22/2019 02:05 AM 44.06 37.76 64.76 43.16 63.0 x 6.93 SW 8.72 SW 13.20 SW No Not Reported No Precipitation     x x Not Reported Not Reported Not Reported 10.00 Clear
03/22/2019 02:06 AM 44.06 37.58 64.76 43.16 63.0 x 7.61 SW 6.71 SW 13.20 SW No Not Reported No Precipitation     x x Not Reported Not Reported Not Reported 10.00 Clear
03/22/2019 02:07 AM 44.06 37.58 64.76 43.16 63.0 x 7.16 SW 8.50 SW 13.20 SW No Not Reported No Precipitation     x x Not Reported Not Reported Not Reported 10.00 Clear
03/22/2019 02:08 AM 44.06 37.76 64.76 43.16 64.0 x 7.38 SW 5.14 SW 13.20 SW No Not Reported No Precipitation     x x Not Reported Not Reported Not Reported 10.00 Clear
03/22/2019 02:09 AM 44.06 37.76 64.76 43.16 64.0 x 6.71 SW 6.49 SW 13.20 SW No Not Reported No Precipitation     x x Not Reported Not Reported Not Reported 10.00 Clear
03/22/2019 02:10 AM 44.06 37.58 64.76 43.16 63.0 x 7.16 SW 8.05 S 12.08 SW No Not Reported No Precipitation     x x Not Reported Not Reported Not Reported 10.00 Clear
03/22/2019 02:11 AM 44.06 37.58 64.76 43.16 63.0 x 8.05 SW 11.63 SW 12.08 SW No Not Reported No Precipitation     x x Not Reported Not Reported Not Reported 10.00 Clear
03/22/2019 02:12 AM 44.06 37.58 64.76 43.16 63.0 x 7.38 SW 6.04 SW 12.08 SW No Not Reported No Precipitation     x x Not Reported Not Reported Not Reported 10.00 Clear
03/22/2019 02:13 AM 44.06 37.58 64.76 43.16 63.0 x 7.38 SW 5.59 SW 12.08 SW No Not Reported No Precipitation     x x Not Reported Not Reported Not Reported 10.00 Clear
03/22/2019 02:14 AM 43.88 37.58 64.76 43.16 64.0 x 6.49 SW 9.62 S 12.08 SW No Not Reported No Precipitation     x x Not Reported Not Reported Not Reported 10.00 Clear
03/22/2019 02:15 AM 43.88 37.58 64.76 43.16 64.0 x 6.93 SW 8.28 S 12.08 SW No Not Reported No Precipitation     x x Not Reported Not Reported Not Reported 10.00 Clear
03/22/2019 02:16 AM 43.88 37.58 64.76 43.16 64.0 x 7.38 SW 8.50 SW 12.08 SW No Not Reported No Precipitation     x x Not Reported Not Reported Not Reported 10.00 Clear
03/22/2019 02:17 AM 43.88 37.40 64.76 43.16 63.0 x 8.28 S 8.72 S 13.42 SW No Not Reported No Precipitation     x x Not Reported Not Reported Not Reported 10.00 Clear
03/22/2019 02:18 AM 43.88 37.40 64.76 43.16 63.0 x 8.50 S 8.95 SW 13.42 SW No Not Reported No Precipitation     x x Not Reported Not Reported Not Reported 10.00 Clear
03/22/2019 02:19 AM 43.88 37.40 64.76 43.16 63.0 x 6.93 SW 3.80 SW 13.42 SW No Not Reported No Precipitation     x x Not Reported Not Reported Not Reported 10.00 Clear
03/22/2019 02:20 AM 43.88 37.58 64.76 43.16 63.0 x 6.49 SW 8.28 SW 13.42 SW No Not Reported No Precipitation     x x Not Reported Not Reported Not Reported 10.00 Clear
03/22/2019 02:21 AM 44.06 37.40 64.76 43.16 63.0 x 7.61 SW 5.59 S 13.42 SW No Not Reported No Precipitation     x x Not Reported Not Reported Not Reported 10.00 Clear
03/22/2019 02:22 AM 44.06 37.58 64.76 43.16 63.0 x 7.16 SW 2.91 SW 13.42 SW No Not Reported No Precipitation     x x Not Reported Not Reported Not Reported 10.00 Clear
03/22/2019 02:23 AM 44.06 37.58 64.76 43.16 63.0 x 5.82 SW 7.61 SW 13.42 SW No Not Reported No Precipitation     x x Not Reported Not Reported Not Reported 10.00 Clear
03/22/2019 02:24 AM 44.06 37.58 64.76 43.16 63.0 x 6.04 SW 6.93 SW 13.42 SW No Not Reported No Precipitation     x x Not Reported Not Reported Not Reported 10.00 Clear
03/22/2019 02:25 AM 44.06 37.58 64.76 43.16 63.0 x 7.16 SW 5.82 SW 13.42 SW No Not Reported No Precipitation     x x Not Reported Not Reported Not Reported 10.00 Clear
03/22/2019 02:26 AM 43.88 37.40 64.76 43.16 63.0 x 7.16 SW 9.62 SW 11.63 SW No Not Reported No Precipitation     x x Not Reported Not Reported Not Reported 10.00 Clear
03/22/2019 02:28 AM 43.88 37.22 64.76 43.16 62.0 x 7.38 SW 7.16 SW 11.63 SW No Not Reported No Precipitation     x x Not Reported Not Reported Not Reported 10.00 Clear
03/22/2019 02:29 AM 44.06 37.40 64.76 43.16 63.0 x 7.16 SW 5.59 S 11.63 SW No Not Reported No Precipitation     x x Not Reported Not Reported Not Reported 10.00 Clear
03/22/2019 02:30 AM 44.06 37.58 64.76 43.16 63.0 x 6.71 SW 4.03 W 10.96 SW No Not Reported No Precipitation     x x Not Reported Not Reported Not Reported 10.00 Clear
03/22/2019 02:31 AM 44.06 37.58 64.76 43.16 63.0 x 6.04 SW 4.03 S 10.96 SW No Not Reported No Precipitation     x x Not Reported Not Reported Not Reported 10.00 Clear
03/22/2019 02:32 AM 44.06 37.76 64.76 43.16 63.0 x 6.26 SW 6.93 S 10.96 SW No Not Reported No Precipitation     x x Not Reported Not Reported Not Reported 10.00 Clear
03/22/2019 02:33 AM 44.06 37.58 64.76 43.16 63.0 x 6.26 SW 5.37 SW 10.96 SW No Not Reported No Precipitation     x x Not Reported Not Reported Not Reported 10.00 Clear
03/22/2019 02:34 AM 43.88 37.40 64.76 43.16 63.0 x 6.26 SW 6.26 SW 10.96 SW No Not Reported No Precipitation     x x Not Reported Not Reported Not Reported 10.00 Clear
03/22/2019 02:35 AM 43.88 37.40 64.76 43.16 63.0 x 7.16 SW 5.14 SW 11.18 S No Not Reported No Precipitation     x x Not Reported Not Reported Not Reported 10.00 Clear
03/22/2019 02:36 AM 44.06 37.58 64.76 43.16 63.0 x 7.38 SW 7.38 S 11.18 S No Not Reported No Precipitation     x x Not Reported Not Reported Not Reported 10.00 Clear
03/22/2019 02:37 AM 44.06 37.58 64.76 43.16 63.0 x 7.16 SW 7.16 SW 11.18 S No Not Reported No Precipitation     x x Not Reported Not Reported Not Reported 10.00 Clear
03/22/2019 02:38 AM 44.06 37.58 64.76 43.16 63.0 x 7.83 SW 4.25 W 11.18 S No Not Reported No Precipitation     x x Not Reported Not Reported Not Reported 10.00 Clear
03/22/2019 02:39 AM 44.06 37.76 64.76 43.16 64.0 x 6.93 SW 7.38 S 11.18 S No Not Reported No Precipitation     x x Not Reported Not Reported Not Reported 10.00 Clear
03/22/2019 02:40 AM 44.06 37.76 64.76 43.16 64.0 x 6.49 SW 7.38 SW 11.18 S No Not Reported No Precipitation     x x Not Reported Not Reported Not Reported 10.00 Clear
03/22/2019 02:41 AM 44.06 37.94 64.76 43.16 64.0 x 6.71 SW 7.16 SW 11.18 S No Not Reported No Precipitation     x x Not Reported Not Reported Not Reported 10.00 Clear
03/22/2019 02:42 AM 44.06 37.94 64.76 43.16 64.0 x 6.49 SW 4.47 SW 11.18 S No Not Reported No Precipitation     x x Not Reported Not Reported Not Reported 10.00 Clear
03/22/2019 02:43 AM 44.24 38.12 64.76 43.16 65.0 x 5.82 SW 6.49 S 11.18 S No Not Reported No Precipitation     x x Not Reported Not Reported Not Reported 10.00 Clear
03/22/2019 02:44 AM 44.06 38.12 64.76 43.16 65.0 x 5.59 SW 10.07 SW 11.18 S No Not Reported No Precipitation     x x Not Reported Not Reported Not Reported 10.00 Clear
03/22/2019 02:45 AM 44.06 38.12 64.76 43.16 65.0 x 6.49 SW 5.59 S 11.18 SW No Not Reported No Precipitation     x x Not Reported Not Reported Not Reported 10.00 Clear
03/22/2019 02:46 AM 44.06 37.94 64.76 43.16 65.0 x 6.49 SW 6.04 S 11.18 SW No Not Reported No Precipitation     x x Not Reported Not Reported Not Reported 10.00 Clear
03/22/2019 02:47 AM 44.06 37.94 64.76 43.16 65.0 x 6.71 SW 7.16 SW 10.29 SW No Not Reported No Precipitation     x x Not Reported Not Reported Not Reported 10.00 Clear
03/22/2019 02:48 AM 44.06 37.94 x 43.16 65.0 x 7.83 SW 6.71 SW 11.63 SW No Not Reported No Precipitation     x x Not Reported Not Reported Not Reported 10.00 Clear
03/22/2019 02:49 AM 44.06 38.30 64.76 43.16 65.0 x 7.38 SW 6.04 S 11.63 SW No Not Reported No Precipitation     x x Not Reported Not Reported Not Reported 10.00 Clear
03/22/2019 02:50 AM 43.88 38.30 64.76 43.16 66.0 x 6.49 SW 8.05 SW 11.63 SW No Not Reported No Precipitation     x x Not Reported Not Reported Not Reported 10.00 Clear
03/22/2019 02:51 AM 44.06 38.30 64.76 43.16 66.0 x 6.71 SW 6.26 S 11.63 SW No Not Reported No Precipitation     x x Not Reported Not Reported Not Reported 10.00 Clear
03/22/2019 02:52 AM 43.88 38.48 64.76 43.16 67.0 x 6.49 SW 4.03 SW 11.63 SW No Not Reported No Precipitation     x x Not Reported Not Reported Not Reported 10.00 Clear
03/22/2019 02:53 AM 43.88 38.48 64.76 43.16 67.0 x 6.49 SW 9.62 SW 11.63 SW No Not Reported No Precipitation     x x Not Reported Not Reported Not Reported 10.00 Clear
03/22/2019 02:54 AM 43.88 38.48 64.76 43.16 67.0 x 6.26 SW 10.74 SW 11.63 SW No Not Reported No Precipitation     x x Not Reported Not Reported Not Reported 10.00 Clear
03/22/2019 02:55 AM 43.88 38.48 64.76 43.16 68.0 x 6.04 SW 6.93 SW 11.63 SW No Not Reported No Precipitation     x x Not Reported Not Reported Not Reported 10.00 Clear
03/22/2019 02:56 AM 43.88 38.48 64.76 43.16 68.0 x 5.59 SW 5.82 SW 11.63 SW No Not Reported No Precipitation     x x Not Reported Not Reported Not Reported 10.00 Clear
03/22/2019 02:57 AM 43.70 38.48 64.76 43.16 68.0 x 5.59 SW 6.49 SW 10.74 SW No Not Reported No Precipitation     x x Not Reported Not Reported Not Reported 10.00 Clear
03/22/2019 02:58 AM 43.88 38.48 64.76 43.16 68.0 x 6.49 SW 7.61 SW 10.74 SW No Not Reported No Precipitation     x x Not Reported Not Reported Not Reported 10.00 Clear
03/22/2019 02:59 AM 43.88 38.66 64.76 43.16 68.0 x 6.49 SW 7.83 SW 10.74 SW No Not Reported No Precipitation     x x Not Reported Not Reported Not Reported 10.00 Clear
03/22/2019 03:01 AM 43.88 38.66 64.76 43.16 69.0 x 7.16 SW 8.05 SW 10.74 SW No Not Reported No Precipitation     x x Not Reported Not Reported Not Reported 10.00 Clear
03/22/2019 03:03 AM 43.70 38.66 64.76 x 69.0 x 6.93 SW 6.04 SW 10.74 SW No Not Reported No Precipitation     x x Not Reported Not Reported Not Reported 10.00 Clear
03/22/2019 03:04 AM 43.70 38.48 64.76 43.16 69.0 x 6.93 SW 6.71 SW 10.07 SW No Not Reported No Precipitation     x x Not Reported Not Reported Not Reported 10.00 Clear
03/22/2019 03:05 AM 43.70 38.66 64.76 43.16 69.0 x 6.93 SW 7.83 S 10.07 SW No Not Reported No Precipitation     x x Not Reported Not Reported Not Reported 10.00 Clear
03/22/2019 03:06 AM 43.70 38.66 64.76 43.16 70.0 x 6.71 SW 7.61 SW 10.07 SW No Not Reported No Precipitation     x x Not Reported Not Reported Not Reported 10.00 Clear
03/22/2019 03:07 AM 43.70 38.66 64.76 43.16 70.0 x 7.61 SW 9.17 SW 11.18 SW No Not Reported No Precipitation     x x Not Reported Not Reported Not Reported 10.00 Clear
03/22/2019 03:08 AM 43.70 38.66 64.76 43.16 69.0 x 7.16 SW 8.50 SW 11.18 SW No Not Reported No Precipitation     x x Not Reported Not Reported Not Reported 10.00 Clear
03/22/2019 03:09 AM 43.70 38.66 64.76 43.16 70.0 x 6.93 SW 7.38 SW 11.18 SW No Not Reported No Precipitation     x x Not Reported Not Reported Not Reported 10.00 Clear
03/22/2019 03:10 AM 43.70 38.66 64.76 43.16 70.0 x 7.38 SW 6.26 SW 11.86 SW No Not Reported No Precipitation     x x Not Reported Not Reported Not Reported 10.00 Clear
03/22/2019 03:11 AM 43.70 38.66 64.76 43.16 70.0 x 7.61 SW 6.26 SW 11.86 SW No Not Reported No Precipitation     x x Not Reported Not Reported Not Reported 10.00 Clear
03/22/2019 03:12 AM 43.70 38.66 64.76 43.16 70.0 x 7.61 SW 8.95 SW 11.86 SW No Not Reported No Precipitation     x x Not Reported Not Reported Not Reported 10.00 Clear
03/22/2019 03:13 AM 43.70 38.66 64.76 43.16 70.0 x 7.38 SW 8.72 SW 11.86 SW No Not Reported No Precipitation     x x Not Reported Not Reported Not Reported 10.00 Clear
03/22/2019 03:15 AM 43.70 38.66 64.76 43.16 69.0 x 7.16 SW 4.47 SW 11.86 SW No Not Reported No Precipitation     x x Not Reported Not Reported Not Reported 10.00 Clear
03/22/2019 03:16 AM 43.70 38.66 64.76 43.16 70.0 x 6.49 SW 5.59 SW 11.86 SW No Not Reported No Precipitation     x x Not Reported Not Reported Not Reported 10.00 Clear
03/22/2019 03:18 AM 43.70 38.66 64.76 43.16 69.0 x 6.71 SW 8.50 SW 11.86 SW No Not Reported No Precipitation     x x Not Reported Not Reported Not Reported 10.00 Clear
03/22/2019 03:19 AM 43.70 38.66 64.76 43.16 69.0 x 7.61 SW 7.83 SW 11.41 SW No Not Reported No Precipitation     x x Not Reported Not Reported Not Reported 10.00 Clear
03/22/2019 03:20 AM 43.70 38.66 64.76 43.16 70.0 x 7.61 SW 6.93 S 11.41 SW No Not Reported No Precipitation     x x Not Reported Not Reported Not Reported 10.00 Clear
03/22/2019 03:21 AM 43.70 38.84 64.76 43.16 70.0 x 7.38 SW 9.62 SW 11.41 SW No Not Reported No Precipitation     x x Not Reported Not Reported Not Reported 10.00 Clear
03/22/2019 03:22 AM 43.70 38.84 64.76 43.16 70.0 x 8.05 SW 6.26 SW 11.41 SW No Not Reported No Precipitation     x x Not Reported Not Reported Not Reported 10.00 Clear
03/22/2019 03:23 AM 43.70 38.84 64.76 43.16 70.0 x 7.83 SW 8.05 SW 11.41 SW No Not Reported No Precipitation     x x Not Reported Not Reported Not Reported 10.00 Clear
03/22/2019 03:24 AM 43.88 38.84 64.76 43.16 70.0 x 7.16 SW 6.71 SW 11.41 SW No Not Reported No Precipitation     x x Not Reported Not Reported Not Reported 10.00 Clear
03/22/2019 03:25 AM 43.88 38.84 64.76 43.16 70.0 x 7.16 SW 7.16 SW 11.41 SW No Not Reported No Precipitation     x x Not Reported Not Reported Not Reported 10.00 Clear
03/22/2019 03:26 AM 43.88 39.02 64.76 43.16 70.0 x 7.16 SW 6.49 SW 11.41 SW No Not Reported No Precipitation     x x Not Reported Not Reported Not Reported 10.00 Clear
03/22/2019 03:27 AM 43.70 39.02 64.76 43.16 70.0 x 7.83 SW 9.17 SW x SW No Not Reported No Precipitation     x x Not Reported Not Reported Not Reported 10.00 Clear
03/22/2019 03:28 AM 43.70 38.84 64.76 43.16 70.0 x 7.61 SW 6.49 SW 13.20 SW No Not Reported No Precipitation     x x Not Reported Not Reported Not Reported 10.00 Clear
03/22/2019 03:29 AM 43.70 39.02 64.76 43.16 70.0 x 7.16 SW 3.58 SW 13.20 SW No Not Reported No Precipitation     x x Not Reported Not Reported Not Reported 10.00 Clear
03/22/2019 03:30 AM 43.70 39.02 64.76 43.16 71.0 x 6.93 SW 9.40 SW 13.20 SW No Not Reported No Precipitation     x x Not Reported Not Reported Not Reported 10.00 Clear
03/22/2019 03:31 AM 43.70 39.02 64.76 43.16 71.0 x 6.93 SW 9.40 SW 13.20 SW No Not Reported No Precipitation     x x Not Reported Not Reported Not Reported 10.00 Clear
03/22/2019 03:32 AM 43.88 39.02 64.76 43.16 71.0 x 7.83 SW 6.49 SW 13.20 SW No Not Reported No Precipitation     x x Not Reported Not Reported Not Reported 10.00 Clear
03/22/2019 03:33 AM 43.70 39.02 64.76 43.16 71.0 x 7.61 SW 5.82 SW 13.20 SW No Not Reported No Precipitation     x x Not Reported Not Reported Not Reported 10.00 Clear
03/22/2019 03:34 AM 43.70 39.02 64.76 43.16 71.0 x 6.71 SW 5.37 S 13.20 SW No Not Reported No Precipitation     x x Not Reported Not Reported Not Reported 10.00 Clear
03/22/2019 03:35 AM 43.70 39.02 64.76 43.16 71.0 x 6.49 SW 11.41 SW 13.20 SW No Not Reported No Precipitation     x x Not Reported Not Reported Not Reported 10.00 Clear
03/22/2019 03:36 AM 43.88 39.20 64.76 43.16 71.0 x 7.61 SW 4.92 SW 13.20 SW No Not Reported No Precipitation     x x Not Reported Not Reported Not Reported 10.00 Clear
03/22/2019 03:37 AM 43.70 38.84 64.76 43.16 71.0 x 7.38 SW 4.70 SW 11.41 SW No Not Reported No Precipitation     x x Not Reported Not Reported Not Reported 10.00 Clear
03/22/2019 03:38 AM 43.88 39.20 64.76 43.16 71.0 x 5.82 SW 5.59 SW 11.41 SW No Not Reported No Precipitation     x x Not Reported Not Reported Not Reported 10.00 Clear
03/22/2019 03:39 AM 43.88 39.20 64.76 43.16 72.0 x 5.82 SW 8.72 SW 11.41 SW No Not Reported No Precipitation     x x Not Reported Not Reported Not Reported 10.00 Clear
03/22/2019 03:40 AM 43.70 39.20 64.76 43.16 72.0 x 7.16 SW 8.72 x 12.75 SW No Not Reported No Precipitation     x x Not Reported Not Reported Not Reported 10.00 Clear
03/22/2019 03:41 AM 43.70 39.20 64.76 43.16 72.0 x 7.61 SW 8.50 SW 12.75 SW No Not Reported No Precipitation     x x Not Reported Not Reported Not Reported 10.00 Clear
03/22/2019 03:42 AM 43.70 39.20 64.76 43.16 72.0 x 7.16 SW 7.38 SW 12.75 SW No Not Reported No Precipitation     x x Not Reported Not Reported Not Reported 10.00 Clear
03/22/2019 03:43 AM 43.70 39.20 64.76 43.16 71.0 x 6.93 SW 7.61 SW 12.75 SW No Not Reported No Precipitation     x x Not Reported Not Reported Not Reported 10.00 Clear
03/22/2019 03:44 AM 43.70 39.02 64.76 43.16 71.0 x 7.16 SW 3.80 SW 12.75 SW No Not Reported No Precipitation     x x Not Reported Not Reported Not Reported 10.00 Clear
03/22/2019 03:45 AM 43.70 39.02 64.76 43.16 71.0 x 7.83 SW 4.92 S 12.75 SW No Not Reported No Precipitation     x x Not Reported Not Reported Not Reported 10.00 Clear
03/22/2019 03:46 AM 43.70 39.02 64.76 43.16 72.0 x 7.38 SW 4.25 SW 12.75 SW No Not Reported No Precipitation     x x Not Reported Not Reported Not Reported 10.00 Clear
03/22/2019 03:47 AM 43.70 39.20 64.76 43.16 72.0 x 7.16 SW 9.17 S 12.75 SW No Not Reported No Precipitation     x x Not Reported Not Reported Not Reported 10.00 Clear
03/22/2019 03:48 AM 43.70 39.20 64.76 43.16 71.0 x 7.61 SW 9.40 SW 12.75 SW No Not Reported No Precipitation     x x Not Reported Not Reported Not Reported 10.00 Clear
03/22/2019 03:49 AM 43.88 39.20 64.76 43.16 71.0 x 8.28 SW 8.72 SW 12.30 SW No Not Reported No Precipitation     x x Not Reported Not Reported Not Reported 10.00 Clear
03/22/2019 03:50 AM 43.70 39.02 64.76 43.16 71.0 x 7.61 SW 6.71 SW 12.30 SW No Not Reported No Precipitation     x x Not Reported Not Reported Not Reported 10.00 Clear
03/22/2019 03:51 AM 43.70 39.02 64.76 43.16 71.0 x 7.38 SW 4.70 S 12.30 SW No Not Reported No Precipitation     x x Not Reported Not Reported Not Reported 10.00 Clear
03/22/2019 03:52 AM 43.70 39.02 64.76 43.16 71.0 x 8.05 SW 9.17 SW 12.30 SW No Not Reported No Precipitation     x x Not Reported Not Reported Not Reported 10.00 Clear
03/22/2019 03:53 AM 43.70 39.02 64.76 43.16 71.0 x 7.38 SW 7.38 SW 12.30 SW No Not Reported No Precipitation     x x Not Reported Not Reported Not Reported 10.00 Clear
03/22/2019 03:54 AM 43.70 39.02 64.76 43.16 71.0 x 7.16 SW 5.82 SW 12.30 SW No Not Reported No Precipitation     x x Not Reported Not Reported Not Reported 10.00 Clear
03/22/2019 03:55 AM 43.70 39.02 64.76 43.16 71.0 x 6.93 SW 8.72 SW 12.30 SW No Not Reported No Precipitation     x x Not Reported Not Reported Not Reported 10.00 Clear
03/22/2019 03:56 AM 43.70 39.02 64.76 43.16 71.0 x 7.16 SW 6.26 SW 12.30 SW No Not Reported No Precipitation     x x Not Reported Not Reported Not Reported 10.00 Clear
03/22/2019 03:57 AM 43.70 39.02 64.76 43.16 71.0 x 7.38 SW 9.62 SW 12.30 SW No Not Reported No Precipitation     x x Not Reported Not Reported Not Reported 10.00 Clear
03/22/2019 03:58 AM 43.70 39.02 64.76 43.16 71.0 x 8.50 SW 10.74 SW 11.41 SW No Not Reported No Precipitation     x x Not Reported Not Reported Not Reported 10.00 Clear
03/22/2019 03:59 AM 43.70 38.84 64.76 43.16 70.0 x 9.62 SW 5.82 S 12.08 SW No Not Reported No Precipitation     x x Not Reported Not Reported Not Reported 10.00 Clear
03/22/2019 04:00 AM 43.70 38.84 64.76 43.16 70.0 x 9.62 SW 6.26 SW 13.20 SW No Not Reported No Precipitation     x x Not Reported Not Reported Not Reported 10.00 Clear
03/22/2019 04:01 AM 43.70 39.02 64.76 43.16 71.0 x 9.17 SW 6.26 SW 13.20 SW No Not Reported No Precipitation     x x Not Reported Not Reported Not Reported 10.00 Clear
03/22/2019 04:02 AM 43.70 39.02 64.76 43.16 71.0 x 7.83 SW 4.92 SW 13.20 SW No Not Reported No Precipitation     x x Not Reported Not Reported Not Reported 10.00 Clear
03/22/2019 04:03 AM 43.88 39.20 64.76 43.16 71.0 x 6.49 SW 7.38 SW 13.20 SW No Not Reported No Precipitation     x x Not Reported Not Reported Not Reported 10.00 Clear
03/22/2019 04:04 AM 43.70 39.02 64.76 43.16 72.0 x 6.93 SW 6.26 SW 13.20 SW No Not Reported No Precipitation     x x Not Reported Not Reported Not Reported 10.00 Clear
03/22/2019 04:05 AM 43.70 39.20 64.76 43.16 72.0 x 7.38 SW 11.41 SW 13.20 SW No Not Reported No Precipitation     x x Not Reported Not Reported Not Reported 10.00 Clear
03/22/2019 04:06 AM 43.70 39.02 64.76 43.16 72.0 x 7.61 SW 11.86 SW 13.20 SW No Not Reported No Precipitation     x x Not Reported Not Reported Not Reported 10.00 Clear
03/22/2019 04:07 AM 43.88 39.02 64.76 43.16 71.0 x 8.28 SW 9.62 SW 13.20 SW No Not Reported No Precipitation     x x Not Reported Not Reported Not Reported 10.00 Clear
03/22/2019 04:08 AM 43.70 39.20 64.76 43.16 72.0 x 7.83 SW 8.05 SW 13.20 SW No Not Reported No Precipitation     x x Not Reported Not Reported Not Reported 10.00 Clear
03/22/2019 04:09 AM 43.88 39.20 64.76 43.16 72.0 x 7.61 SW 8.28 SW 13.20 SW No Not Reported No Precipitation     x x Not Reported Not Reported Not Reported 10.00 Clear
03/22/2019 04:10 AM 43.70 39.20 64.76 43.16 72.0 x 7.83 SW 9.40 S 13.20 SW No Not Reported No Precipitation     x x Not Reported Not Reported Not Reported 10.00 Clear
03/22/2019 04:11 AM 43.52 39.20 64.76 43.16 72.0 x 8.28 SW 10.51 SW 12.97 SW No Not Reported No Precipitation     x x Not Reported Not Reported Not Reported 10.00 Clear
03/22/2019 04:12 AM 43.70 39.20 64.76 43.16 73.0 x 8.50 SW 10.07 SW 12.97 SW No Not Reported No Precipitation     x x Not Reported Not Reported Not Reported 10.00 Clear
03/22/2019 04:13 AM 43.52 39.20 64.76 43.16 73.0 x 8.95 SW 8.05 SW 12.97 SW No Not Reported No Precipitation     x x Not Reported Not Reported Not Reported 10.00 Clear
03/22/2019 04:14 AM 43.52 39.20 64.76 43.16 73.0 x 8.05 SW 6.93 W 12.97 SW No Not Reported No Precipitation     x x Not Reported Not Reported Not Reported 10.00 Clear
03/22/2019 04:15 AM 43.52 39.20 64.76 43.16 73.0 x 7.38 SW 3.80 SW 12.97 SW No Not Reported No Precipitation     x x Not Reported Not Reported Not Reported 10.00 Clear
03/22/2019 04:16 AM 43.52 39.20 64.76 43.16 73.0 x 7.83 SW 6.49 NW 12.97 SW No Not Reported No Precipitation     x x Not Reported Not Reported Not Reported 10.00 Clear
03/22/2019 04:17 AM 43.52 39.20 64.76 43.16 73.0 x 7.83 SW 9.84 SW 12.30 SW No Not Reported No Precipitation     x x Not Reported Not Reported Not Reported 10.00 Clear
03/22/2019 04:18 AM 43.34 39.02 64.76 43.16 73.0 x 7.83 SW 8.72 SW 12.30 SW No Not Reported No Precipitation     x x Not Reported Not Reported Not Reported 10.00 Clear
03/22/2019 04:19 AM 43.34 39.02 64.76 43.16 73.0 x 8.28 SW 9.84 SW 12.30 SW No Not Reported No Precipitation     x x Not Reported Not Reported Not Reported 10.00 Clear
03/22/2019 04:20 AM 43.34 39.02 64.76 43.16 72.0 x 8.95 SW 8.05 SW 12.30 SW No Not Reported No Precipitation     x x Not Reported Not Reported Not Reported 10.00 Clear
03/22/2019 04:21 AM 43.34 39.02 64.76 43.16 73.0 x 8.05 SW 7.38 SW 12.30 SW No Not Reported No Precipitation     x x Not Reported Not Reported Not Reported 10.00 Clear
03/22/2019 04:22 AM 43.34 39.02 64.76 43.16 73.0 x 8.50 SW 12.75 S 12.97 SW No Not Reported No Precipitation     x x Not Reported Not Reported Not Reported 10.00 Clear
03/22/2019 04:23 AM 43.34 38.84 64.76 43.16 73.0 x 8.50 SW 8.50 SW 12.97 SW No Not Reported No Precipitation     x x Not Reported Not Reported Not Reported 10.00 Clear
03/22/2019 04:24 AM 43.52 39.02 64.76 43.16 73.0 x 8.05 SW 6.93 SW 12.97 SW No Not Reported No Precipitation     x x Not Reported Not Reported Not Reported 10.00 Clear
03/22/2019 04:25 AM 43.34 38.84 64.76 43.16 73.0 x 8.95 SW 7.38 SW 12.97 SW No Not Reported No Precipitation     x x Not Reported Not Reported Not Reported 10.00 Clear
03/22/2019 04:26 AM 43.34 39.02 64.76 43.16 72.0 x 8.95 SW 7.16 SW 12.97 SW No Not Reported No Precipitation     x x Not Reported Not Reported Not Reported 10.00 Clear
03/22/2019 04:27 AM 43.34 38.84 64.76 43.16 72.0 x 8.05 SW 9.62 SW 12.97 SW No Not Reported No Precipitation     x x Not Reported Not Reported Not Reported 10.00 Clear
03/22/2019 04:28 AM 43.34 39.02 64.76 43.16 73.0 x 7.61 SW 11.41 SW 12.97 SW No Not Reported No Precipitation     x x Not Reported Not Reported Not Reported 10.00 Clear
03/22/2019 04:29 AM 43.34 39.02 64.76 43.16 73.0 x 7.83 SW 11.41 SW 12.97 SW No Not Reported No Precipitation     x x Not Reported Not Reported Not Reported 10.00 Clear
03/22/2019 04:30 AM 43.34 39.02 64.76 43.16 73.0 x 8.05 SW 6.04 SW 13.65 SW No Not Reported No Precipitation     x x Not Reported Not Reported Not Reported 10.00 Clear
03/22/2019 04:31 AM 43.34 39.20 64.76 43.16 73.0 x 7.16 SW 9.84 SW 13.65 SW No Not Reported No Precipitation     x x Not Reported Not Reported Not Reported 10.00 Clear
03/22/2019 04:32 AM 43.34 39.02 64.76 43.16 73.0 x 7.61 SW 8.72 SW 13.65 SW No Not Reported No Precipitation     x x Not Reported Not Reported Not Reported 10.00 Clear
03/22/2019 04:33 AM 43.34 39.02 64.76 43.16 73.0 x 9.40 SW 9.40 SW 13.65 SW No Not Reported No Precipitation     x x Not Reported Not Reported Not Reported 10.00 Clear
03/22/2019 04:34 AM 43.34 38.84 64.76 43.16 73.0 x 8.72 SW 7.83 SW 13.65 SW No Not Reported No Precipitation     x x Not Reported Not Reported Not Reported 10.00 Clear
03/22/2019 04:35 AM 43.34 39.02 64.76 43.16 73.0 x 8.05 SW 9.62 SW 13.65 SW No Not Reported No Precipitation     x x Not Reported Not Reported Not Reported 10.00 Clear
03/22/2019 04:36 AM 43.16 39.02 64.76 43.16 73.0 x 7.16 SW 6.93 SW 13.65 SW No Not Reported No Precipitation     x x Not Reported Not Reported Not Reported 10.00 Clear
03/22/2019 04:37 AM 43.16 39.02 64.76 43.16 73.0 x 7.16 SW 9.40 SW 13.65 SW No Not Reported No Precipitation     x x Not Reported Not Reported Not Reported 10.00 Clear
03/22/2019 04:38 AM 43.16 39.02 64.76 43.16 74.0 x 7.61 SW 4.92 SW 13.65 SW No Not Reported No Precipitation     x x Not Reported Not Reported Not Reported 10.00 Clear
03/22/2019 04:39 AM 43.16 39.02 64.76 43.16 74.0 x 8.05 SW 9.17 SW 14.09 SW No Not Reported No Precipitation     x x Not Reported Not Reported Not Reported 10.00 Clear
03/22/2019 04:40 AM 43.16 39.02 64.76 43.16 74.0 x 8.28 SW 8.05 SW 14.09 SW No Not Reported No Precipitation     x x Not Reported Not Reported Not Reported 10.00 Clear
03/22/2019 04:41 AM 42.98 38.84 64.76 43.16 74.0 x 7.16 SW 7.61 S 14.09 SW No Not Reported No Precipitation     x x Not Reported Not Reported Not Reported 10.00 Clear
03/22/2019 04:42 AM 43.16 38.84 64.76 43.16 74.0 x 6.49 SW 11.63 SW 14.09 SW No Not Reported No Precipitation     x x Not Reported Not Reported Not Reported 10.00 Clear
03/22/2019 04:43 AM 43.16 38.84 64.76 43.16 73.0 x 7.61 SW 8.72 SW 14.09 SW No Not Reported No Precipitation     x x Not Reported Not Reported Not Reported 10.00 Clear
03/22/2019 04:44 AM 42.98 38.66 64.76 43.16 73.0 x 8.28 SW 5.37 SW 14.09 SW No Not Reported No Precipitation     x x Not Reported Not Reported Not Reported 10.00 Clear
03/22/2019 04:45 AM 42.98 38.84 64.76 43.16 74.0 x 7.16 SW 8.72 SW 14.09 SW No Not Reported No Precipitation     x x Not Reported Not Reported Not Reported 10.00 Clear
03/22/2019 04:46 AM 42.98 38.84 64.76 43.16 74.0 x 7.61 SW 5.59 S 14.09 SW No Not Reported No Precipitation     x x Not Reported Not Reported Not Reported 10.00 Clear
03/22/2019 04:47 AM 42.98 38.84 64.76 43.16 74.0 x 7.38 SW 5.37 SW 14.09 SW No Not Reported No Precipitation     x x Not Reported Not Reported Not Reported 10.00 Clear
03/22/2019 04:48 AM 43.16 38.84 64.76 43.16 73.0 x 7.38 SW 8.50 SW 14.09 SW No Not Reported No Precipitation     x x Not Reported Not Reported Not Reported 10.00 Clear
03/22/2019 04:49 AM 43.16 38.84 64.76 43.16 73.0 x 7.38 SW 8.50 SW 11.63 SW No Not Reported No Precipitation     x x Not Reported Not Reported Not Reported 10.00 Clear
03/22/2019 04:50 AM 42.98 38.84 64.76 43.16 73.0 x 6.93 SW 3.36 W 11.63 SW No Not Reported No Precipitation     x x Not Reported Not Reported Not Reported 10.00 Clear
03/22/2019 04:51 AM 42.98 38.66 64.76 43.16 73.0 x 6.49 SW 7.38 SW 11.63 SW No Not Reported No Precipitation     x x Not Reported Not Reported Not Reported 10.00 Clear
03/22/2019 04:52 AM 43.16 38.84 64.76 43.16 73.0 x 7.16 SW 7.16 W 11.86 SW No Not Reported No Precipitation     x x Not Reported Not Reported Not Reported 10.00 Clear
03/22/2019 04:53 AM 43.16 38.84 64.76 43.16 73.0 x 8.50 SW 10.74 SW 13.20 SW No Not Reported No Precipitation     x x Not Reported Not Reported Not Reported 10.00 Clear
03/22/2019 04:54 AM 43.16 39.02 64.76 43.16 73.0 x 8.95 SW 12.08 SW 13.20 SW No Not Reported No Precipitation     x x Not Reported Not Reported Not Reported 10.00 Clear
03/22/2019 04:55 AM 43.16 38.66 64.76 43.16 73.0 x 8.50 SW 8.50 SW 13.20 SW No Not Reported No Precipitation     x x Not Reported Not Reported Not Reported 10.00 Clear
03/22/2019 04:56 AM 43.16 38.84 64.76 43.16 73.0 x 6.71 SW 3.58 S 13.20 SW No Not Reported No Precipitation     x x Not Reported Not Reported Not Reported 10.00 Clear
03/22/2019 04:57 AM 43.16 38.84 64.76 43.16 73.0 x 6.71 SW 8.28 SW 13.20 SW No Not Reported No Precipitation     x x Not Reported Not Reported Not Reported 10.00 Clear
03/22/2019 04:58 AM 43.16 38.84 64.76 43.16 73.0 x 6.93 SW 10.74 SW 13.20 SW No Not Reported No Precipitation     x x Not Reported Not Reported Not Reported 10.00 Clear
03/22/2019 04:59 AM 43.16 38.84 64.76 43.16 73.0 x 7.61 SW 7.61 SW 13.20 SW No Not Reported No Precipitation     x x Not Reported Not Reported Not Reported 10.00 Clear
03/22/2019 05:00 AM 43.16 39.02 64.76 43.16 73.0 x 7.38 SW 6.93 SW 13.20 SW No Not Reported No Precipitation     x x Not Reported Not Reported Not Reported 10.00 Clear
03/22/2019 05:01 AM 43.16 38.84 64.76 43.16 74.0 x 6.71 SW 4.92 SW 13.20 SW No Not Reported No Precipitation     x x Not Reported Not Reported Not Reported 10.00 Clear
03/22/2019 05:02 AM 42.98 38.84 64.76 43.16 74.0 x 6.71 SW 7.83 SW 12.08 SW No Not Reported No Precipitation     x x Not Reported Not Reported Not Reported 10.00 Clear
03/22/2019 05:03 AM 42.98 38.84 64.76 43.16 74.0 x 6.93 SW 3.58 S 12.08 SW No Not Reported No Precipitation     x x Not Reported Not Reported Not Reported 10.00 Clear
03/22/2019 05:04 AM 43.16 38.84 64.76 43.16 74.0 x 7.16 SW 4.92 SW 11.63 SW No Not Reported No Precipitation     x x Not Reported Not Reported Not Reported 10.00 Clear
03/22/2019 05:05 AM 42.98 38.84 64.76 43.16 74.0 x 6.71 SW 5.82 SW 11.63 SW No Not Reported No Precipitation     x x Not Reported Not Reported Not Reported 10.00 Clear
03/22/2019 05:06 AM 42.98 38.84 64.76 43.16 74.0 x 6.71 SW 8.95 SW 11.63 SW No Not Reported No Precipitation     x x Not Reported Not Reported Not Reported 10.00 Clear
03/22/2019 05:07 AM 42.98 38.84 64.76 43.16 74.0 x 6.93 SW 4.92 SW 11.63 SW No Not Reported No Precipitation     x x Not Reported Not Reported Not Reported 10.00 Clear
03/22/2019 05:08 AM 43.16 38.84 64.76 43.16 73.0 x 6.93 SW 4.70 SW 11.63 SW No Not Reported No Precipitation     x x Not Reported Not Reported Not Reported 10.00 Clear
03/22/2019 05:09 AM 43.16 38.84 64.76 43.16 73.0 x 6.49 SW 7.61 SW 11.63 SW No Not Reported No Precipitation     x x Not Reported Not Reported Not Reported 10.00 Clear
03/22/2019 05:10 AM 42.98 38.84 64.76 43.16 74.0 x 6.71 SW 7.16 SW 11.63 SW No Not Reported No Precipitation     x x Not Reported Not Reported Not Reported 10.00 Clear
03/22/2019 05:11 AM 42.98 39.02 64.76 43.16 74.0 x 7.61 SW 10.74 SW 11.63 SW No Not Reported No Precipitation     x x Not Reported Not Reported Not Reported 10.00 Clear
03/22/2019 05:12 AM 42.98 38.84 64.76 43.16 74.0 x 7.61 SW 8.95 SW 11.18 SW No Not Reported No Precipitation     x x Not Reported Not Reported Not Reported 10.00 Clear
03/22/2019 05:13 AM 42.98 38.84 64.76 43.16 74.0 x 7.38 SW 5.82 SW 11.18 SW No Not Reported No Precipitation     x x Not Reported Not Reported Not Reported 10.00 Clear
03/22/2019 05:14 AM 42.98 39.02 64.76 43.16 74.0 x 7.61 SW 4.92 S 11.63 SW No Not Reported No Precipitation     x x Not Reported Not Reported Not Reported 10.00 Clear
03/22/2019 05:15 AM 42.98 39.02 64.76 43.16 74.0 x 6.93 SW 7.16 SW 11.63 SW No Not Reported No Precipitation     x x Not Reported Not Reported Not Reported 10.00 Clear
03/22/2019 05:16 AM 42.98 38.84 64.76 43.16 74.0 x 7.16 SW 9.17 SW 11.63 SW No Not Reported No Precipitation     x x Not Reported Not Reported Not Reported 10.00 Clear
03/22/2019 05:17 AM 42.98 38.84 64.76 43.16 74.0 x 8.28 SW 9.17 SW 11.63 SW No Not Reported No Precipitation     x x Not Reported Not Reported Not Reported 10.00 Clear
03/22/2019 05:18 AM 42.98 38.84 64.76 43.16 74.0 x 8.05 SW 7.38 SW 11.63 SW No Not Reported No Precipitation     x x Not Reported Not Reported Not Reported 10.00 Clear
03/22/2019 05:19 AM 42.98 38.84 64.76 43.16 74.0 x 7.83 SW 9.17 SW 11.63 SW No Not Reported No Precipitation     x x Not Reported Not Reported Not Reported 10.00 Clear
03/22/2019 05:20 AM 42.98 38.84 64.76 43.16 74.0 x 7.83 SW 7.38 SW 11.63 SW No Not Reported No Precipitation     x x Not Reported Not Reported Not Reported 10.00 Clear
03/22/2019 05:21 AM 42.98 38.84 64.76 43.16 74.0 x 7.83 SW 7.61 SW 11.63 SW No Not Reported No Precipitation     x x Not Reported Not Reported Not Reported 10.00 Clear
03/22/2019 05:22 AM 42.80 38.84 64.76 43.16 74.0 x 7.16 SW 9.84 SW 11.63 SW No Not Reported No Precipitation     x x Not Reported Not Reported Not Reported 10.00 Clear
03/22/2019 05:23 AM 42.98 38.84 64.76 43.16 74.0 x 7.16 SW 8.95 SW 11.41 SW No Not Reported No Precipitation     x x Not Reported Not Reported Not Reported 10.00 Clear
03/22/2019 05:24 AM 42.62 38.66 64.76 43.16 74.0 x 7.61 SW 8.50 SW 11.41 SW No Not Reported No Precipitation     x x Not Reported Not Reported Not Reported 10.00 Clear
03/22/2019 05:25 AM 42.80 38.84 64.76 43.16 74.0 x 6.93 SW 8.95 SW 10.96 SW No Not Reported No Precipitation     x x Not Reported Not Reported Not Reported 10.00 Clear
03/22/2019 05:26 AM 42.80 38.66 64.76 43.16 74.0 x 6.26 W 7.38 W 10.96 SW No Not Reported No Precipitation     x x Not Reported Not Reported Not Reported 10.00 Clear
03/22/2019 05:27 AM 42.62 38.66 64.76 43.16 75.0 x 6.71 W 7.61 W 10.96 SW No Not Reported No Precipitation     x x Not Reported Not Reported Not Reported 10.00 Clear
03/22/2019 05:28 AM 42.62 38.66 64.76 43.16 75.0 x 6.93 W 7.16 W 10.74 SW No Not Reported No Precipitation     x x Not Reported Not Reported Not Reported 10.00 Clear
03/22/2019 05:29 AM 42.44 38.66 64.76 43.16 76.0 x 6.93 W 6.71 NW 10.29 SW No Not Reported No Precipitation     x x Not Reported Not Reported Not Reported 10.00 Clear
03/22/2019 05:30 AM 42.44 38.66 64.76 43.16 76.0 x 6.04 W 4.92 NW 10.29 SW No Not Reported No Precipitation     x x Not Reported Not Reported Not Reported 10.00 Clear
03/22/2019 05:32 AM 42.44 38.84 64.76 43.16 77.0 x 6.71 W 8.28 W 10.29 SW No Not Reported No Precipitation     x x Not Reported Not Reported Not Reported 10.00 Clear
03/22/2019 05:33 AM 42.44 38.84 64.76 43.16 77.0 x 8.05 W 6.49 W 10.29 W No Not Reported No Precipitation     x x Not Reported Not Reported Not Reported 10.00 Clear
03/22/2019 05:34 AM 42.44 38.66 64.76 43.16 76.0 x 7.83 W 8.95 W 10.29 W No Not Reported No Precipitation     x x Not Reported Not Reported Not Reported 10.00 Clear
03/22/2019 05:35 AM 42.44 38.66 64.76 43.16 76.0 x 7.61 SW 9.40 SW 11.41 SW No Not Reported No Precipitation     x x Not Reported Not Reported Not Reported 10.00 Clear
03/22/2019 05:36 AM 42.62 38.66 64.76 43.16 75.0 x 7.83 W 7.38 SW 11.41 SW No Not Reported No Precipitation     x x Not Reported Not Reported Not Reported 10.00 Clear
03/22/2019 05:37 AM 42.44 38.48 64.76 43.16 74.0 x 6.71 W 3.58 W 11.41 SW No Not Reported No Precipitation     x x Not Reported Not Reported Not Reported 10.00 Clear
03/22/2019 05:38 AM 42.44 38.48 64.76 43.16 75.0 x 6.26 W 5.59 NW 11.41 SW No Not Reported No Precipitation     x x Not Reported Not Reported Not Reported 10.00 Clear
03/22/2019 05:39 AM 42.44 38.48 64.76 43.16 75.0 x 7.16 W 7.38 W 11.41 SW No Not Reported No Precipitation     x x Not Reported Not Reported Not Reported 10.00 Clear
03/22/2019 05:40 AM 42.44 38.48 64.76 43.16 75.0 x 6.93 W 7.38 W 11.41 SW No Not Reported No Precipitation     x x Not Reported Not Reported Not Reported 10.00 Clear
03/22/2019 05:41 AM 42.44 38.48 64.76 43.16 75.0 x 6.93 W 8.05 SW 11.41 SW No Not Reported No Precipitation     x x Not Reported Not Reported Not Reported 10.00 Clear
03/22/2019 05:42 AM 42.44 38.48 64.76 43.16 75.0 x 7.83 W 5.14 SW 11.41 SW No Not Reported No Precipitation     x x Not Reported Not Reported Not Reported 10.00 Clear
03/22/2019 05:43 AM 42.62 38.30 64.76 43.16 74.0 x 8.05 SW 7.83 SW 11.41 SW No Not Reported No Precipitation     x x Not Reported Not Reported Not Reported 10.00 Clear
03/22/2019 05:44 AM 42.44 38.30 64.76 43.16 74.0 x 8.28 SW 7.38 W 11.41 SW No Not Reported No Precipitation     x x Not Reported Not Reported Not Reported 10.00 Clear
03/22/2019 05:45 AM 42.62 38.48 64.76 43.16 74.0 x 7.38 SW 7.16 SW 10.96 SW No Not Reported No Precipitation     x x Not Reported Not Reported Not Reported 10.00 Clear
03/22/2019 05:46 AM 42.62 38.48 64.76 43.16 75.0 x 6.71 SW 7.83 W 10.96 SW No Not Reported No Precipitation     x x Not Reported Not Reported Not Reported 10.00 Clear
03/22/2019 05:47 AM 42.62 38.66 64.76 43.16 75.0 x 6.26 W 5.59 W 10.96 SW No Not Reported No Precipitation     x x Not Reported Not Reported Not Reported 10.00 Clear
03/22/2019 05:48 AM 42.44 38.66 64.76 43.16 76.0 x 5.37 W 5.14 W 10.96 SW No Not Reported No Precipitation     x x Not Reported Not Reported Not Reported 10.00 Clear
03/22/2019 05:49 AM 42.44 38.84 64.76 43.52 76.0 x 4.92 W 4.03 W 10.96 SW No Not Reported No Precipitation     x x Not Reported Not Reported Not Reported 10.00 Clear
03/22/2019 05:50 AM 42.62 39.02 64.76 43.52 77.0 x 4.70 W 5.37 W 10.96 SW No Not Reported No Precipitation     x x Not Reported Not Reported Not Reported 10.00 Clear
03/22/2019 05:51 AM 42.44 39.20 64.76 43.52 78.0 x 4.92 W 5.37 W 10.96 SW No Not Reported No Precipitation     x x Not Reported Not Reported Not Reported 10.00 Clear
03/22/2019 05:52 AM 42.62 39.56 64.76 43.52 79.0 x 4.92 W 4.47 W 10.29 SW No Not Reported No Precipitation     x x Not Reported Not Reported Not Reported 10.00 Clear
03/22/2019 05:53 AM 42.62 39.74 64.76 43.52 81.0 x 5.14 W 4.47 W 9.17 SW No Not Reported No Precipitation     x x Not Reported Not Reported Not Reported 10.00 Clear
03/22/2019 05:54 AM 42.62 39.92 64.76 43.52 81.0 x 5.59 W 5.37 W 8.28 SW No Not Reported No Precipitation     x x Not Reported Not Reported Not Reported 10.00 Clear
03/22/2019 05:55 AM 42.44 39.92 64.76 43.52 82.0 x 5.59 W 5.82 W 8.05 W No Not Reported No Precipitation     x x Not Reported Not Reported Not Reported 10.00 Clear
03/22/2019 05:56 AM 42.62 40.10 64.76 43.52 82.0 x 6.04 W 5.59 W 7.38 W No Not Reported No Precipitation     x x Not Reported Not Reported Not Reported 10.00 Clear
03/22/2019 05:57 AM 42.62 40.10 64.76 43.52 82.0 x 6.49 W 7.16 W 7.38 W No Not Reported No Precipitation     x x Not Reported Not Reported Not Reported 10.00 Clear
03/22/2019 05:58 AM 42.62 39.92 64.76 43.52 83.0 x 6.49 W 6.04 W 7.83 W No Not Reported No Precipitation     x x Not Reported Not Reported Not Reported 10.00 Clear
03/22/2019 05:59 AM 42.44 39.92 64.76 43.52 83.0 x 6.26 W 5.59 W 7.83 W No Not Reported No Precipitation     x x Not Reported Not Reported Not Reported 10.00 Clear
03/22/2019 06:00 AM 42.44 40.10 64.76 43.52 83.0 x 5.59 W 4.92 W 7.83 W No Not Reported No Precipitation     x x Not Reported Not Reported Not Reported 10.00 Clear
03/22/2019 06:01 AM 42.44 39.92 64.76 43.52 84.0 x 5.59 W 5.82 W 7.83 W No Not Reported No Precipitation     x x Not Reported Not Reported Not Reported 10.00 Clear
03/22/2019 06:02 AM 42.26 39.92 64.76 43.52 83.0 x 5.59 W 5.82 W x W No Not Reported No Precipitation     x x Not Reported Not Reported Not Reported 10.00 Clear
03/22/2019 06:03 AM 42.26 39.92 64.76 43.52 84.0 x 5.82 W 5.82 SW 7.83 W No Not Reported No Precipitation     x x Not Reported Not Reported Not Reported 10.00 Clear
03/22/2019 06:04 AM 42.26 39.92 64.76 43.52 84.0 x 5.59 W 4.92 W 7.83 W No Not Reported No Precipitation     x x Not Reported Not Reported Not Reported 10.00 Clear
03/22/2019 06:05 AM 42.26 39.92 64.76 43.52 84.0 x 4.92 W 4.47 W 7.83 W No Not Reported No Precipitation     x x Not Reported Not Reported Not Reported 10.00 Clear
03/22/2019 06:06 AM 42.08 39.92 64.76 43.52 85.0 x 4.70 W 4.92 W 7.83 W No Not Reported No Precipitation     x x Not Reported Not Reported Not Reported 10.00 Clear
03/22/2019 06:07 AM 42.26 40.10 64.76 43.52 85.0 x 4.70 W 5.37 W 7.38 W No Not Reported No Precipitation     x x Not Reported Not Reported Not Reported 10.00 Clear
03/22/2019 06:08 AM 42.08 40.10 64.76 43.52 85.0 x 4.92 W 5.59 W 7.16 W No Not Reported No Precipitation     x x Not Reported Not Reported Not Reported 10.00 Clear
03/22/2019 06:09 AM 42.26 40.10 64.76 43.52 86.0 x 5.14 W 5.82 W 7.16 W No Not Reported No Precipitation     x x Not Reported Not Reported Not Reported 10.00 Clear
03/22/2019 06:10 AM 42.26 40.28 64.76 43.52 86.0 x 5.82 W 5.82 W 7.16 W No Not Reported No Precipitation     x x Not Reported Not Reported Not Reported 10.00 Clear
03/22/2019 06:11 AM 42.08 40.28 64.76 43.52 86.0 x 5.37 W 4.92 W 7.16 W No Not Reported No Precipitation     x x Not Reported Not Reported Not Reported 10.00 Clear
03/22/2019 06:12 AM 42.08 40.28 64.76 43.52 87.0 x 4.92 W 5.37 W 6.93 W No Not Reported No Precipitation     x x Not Reported Not Reported Not Reported 10.00 Clear
03/22/2019 06:13 AM 42.26 40.28 64.76 43.52 87.0 x 5.37 W 4.47 SW 6.93 W No Not Reported No Precipitation     x x Not Reported Not Reported Not Reported 10.00 Clear
03/22/2019 06:14 AM 42.26 40.46 64.76 43.52 87.0 x 5.14 W 4.47 W 6.93 W No Not Reported No Precipitation     x x Not Reported Not Reported Not Reported 10.00 Clear
03/22/2019 06:15 AM 42.26 40.64 64.76 43.52 87.0 x 4.03 W 3.13 SW 6.93 W No Not Reported No Precipitation     x x Not Reported Not Reported Not Reported 10.00 Clear
03/22/2019 06:16 AM 42.08 40.46 64.76 43.52 88.0 x 3.13 W 2.91 W 6.93 W No Not Reported No Precipitation     x x Not Reported Not Reported Not Reported 10.00 Clear
03/22/2019 06:17 AM 42.08 40.28 64.76 43.52 88.0 x 2.91 SW 3.13 SW 6.93 W No Not Reported No Precipitation     x x Not Reported Not Reported Not Reported 10.00 Clear
03/22/2019 06:18 AM 41.90 40.28 64.76 43.34 88.0 x 3.13 SW 4.03 SW 6.93 W No Not Reported No Precipitation     x x Not Reported Not Reported Not Reported 10.00 Clear
03/22/2019 06:19 AM 41.90 40.28 64.76 43.34 88.0 x 3.80 SW 3.58 SW 6.49 W No Not Reported No Precipitation     x x Not Reported Not Reported Not Reported 10.00 Clear
03/22/2019 06:20 AM 41.90 40.28 64.76 43.34 88.0 x 4.03 SW 3.13 SW 6.49 W No Not Reported No Precipitation     x x Not Reported Not Reported Not Reported 10.00 Clear
03/22/2019 06:21 AM 41.72 40.10 64.76 43.16 88.0 x 4.47 SW 4.92 SW 6.49 W No Not Reported No Precipitation     x x Not Reported Not Reported Not Reported 10.00 Clear
03/22/2019 06:22 AM 41.72 40.10 64.76 43.16 88.0 x 4.47 SW 3.13 W 6.49 W No Not Reported No Precipitation     x x Not Reported Not Reported Not Reported 10.00 Clear
03/22/2019 06:23 AM 41.72 39.92 64.76 42.98 88.0 x 4.03 SW 4.25 SW 5.59 SW No Not Reported No Precipitation     x x Not Reported Not Reported Not Reported 10.00 Clear
03/22/2019 06:24 AM 41.72 40.10 64.76 42.98 88.0 x 4.25 SW 4.70 SW 5.59 SW No Not Reported No Precipitation     x x Not Reported Not Reported Not Reported 10.00 Clear
03/22/2019 06:25 AM 41.54 39.74 64.76 42.98 88.0 x 4.47 SW 4.92 SW 5.59 SW No Not Reported No Precipitation     x x Not Reported Not Reported Not Reported 10.00 Clear
03/22/2019 06:26 AM 41.54 39.74 64.76 42.98 87.0 x 4.47 SW 4.03 W 5.59 SW No Not Reported No Precipitation     x x Not Reported Not Reported Not Reported 10.00 Clear
03/22/2019 06:27 AM 41.54 39.74 64.76 42.98 87.0 x 4.25 SW 3.80 SW 5.59 SW No Not Reported No Precipitation     x x Not Reported Not Reported Not Reported 10.00 Clear
03/22/2019 06:28 AM 41.36 39.74 64.76 42.98 87.0 x 3.58 SW 3.36 SW 5.59 SW No Not Reported No Precipitation     x x Not Reported Not Reported Not Reported 10.00 Clear
03/22/2019 06:29 AM 41.36 39.56 64.76 42.98 87.0 x 3.36 SW 3.36 SW 5.59 SW No Not Reported No Precipitation     x x Not Reported Not Reported Not Reported 10.00 Clear
03/22/2019 06:30 AM 41.36 39.38 64.76 42.98 87.0 x 3.36 SW 3.58 SW 5.59 SW No Not Reported No Precipitation     x x Not Reported Not Reported Not Reported 10.00 Clear
03/22/2019 06:32 AM 41.36 39.38 64.76 42.98 86.0 x 3.36 SW 3.36 SW 5.59 SW No Not Reported No Precipitation     x x Not Reported Not Reported Not Reported 10.00 Clear
03/22/2019 06:33 AM 41.18 39.20 64.76 42.80 86.0 x 3.36 SW 3.58 SW 5.14 SW No Not Reported No Precipitation     x x Not Reported Not Reported Not Reported 10.00 Clear
03/22/2019 06:34 AM 41.18 39.20 64.76 42.80 86.0 x 3.36 SW 3.13 SW 5.14 SW No Not Reported No Precipitation     x x Not Reported Not Reported Not Reported 10.00 Clear
03/22/2019 06:35 AM 41.18 39.20 64.76 42.80 86.0 x 3.80 SW 4.03 SW 4.47 SW No Not Reported No Precipitation     x x Not Reported Not Reported Not Reported 10.00 Clear
03/22/2019 06:36 AM 41.36 39.20 64.76 42.80 86.0 x 3.80 SW 3.36 SW 4.47 SW No Not Reported No Precipitation     x x Not Reported Not Reported Not Reported 10.00 Clear
03/22/2019 06:37 AM 41.36 39.38 64.76 42.80 87.0 x 3.36 SW 3.36 SW 4.47 SW No Not Reported No Precipitation     x x Not Reported Not Reported Not Reported 10.00 Clear
03/22/2019 06:38 AM 41.36 39.56 64.76 42.80 87.0 x 3.36 SW 3.80 SW 4.47 SW No Not Reported No Precipitation     x x Not Reported Not Reported Not Reported 10.00 Clear
03/22/2019 06:39 AM 41.18 39.56 64.76 42.80 87.0 x 3.36 SW 3.58 SW 4.47 SW No Not Reported No Precipitation     x x Not Reported Not Reported Not Reported 10.00 Clear
03/22/2019 06:40 AM 41.36 39.56 64.76 42.80 88.0 x 3.58 SW 3.58 SW 4.47 SW No Not Reported No Precipitation     x x Not Reported Not Reported Not Reported 10.00 Clear
03/22/2019 06:41 AM 41.36 39.56 64.76 42.80 88.0 x 3.80 SW 4.70 SW 4.70 SW No Not Reported No Precipitation     x x Not Reported Not Reported Not Reported 10.00 Clear
03/22/2019 06:42 AM 41.36 39.56 64.76 42.80 88.0 x 4.25 SW 4.47 SW 5.14 SW No Not Reported No Precipitation     x x Not Reported Not Reported Not Reported 10.00 Clear
03/22/2019 06:43 AM 41.36 39.74 64.76 42.62 88.0 x 4.70 SW 5.82 SW 6.04 SW No Not Reported No Precipitation     x x Not Reported Not Reported Not Reported 10.00 Clear
03/22/2019 06:44 AM 41.18 39.56 64.76 42.62 88.0 x 5.14 SW 5.82 SW 6.49 SW No Not Reported No Precipitation     x x Not Reported Not Reported Not Reported 10.00 Clear
03/22/2019 06:45 AM 41.18 39.56 64.76 42.62 88.0 x 5.37 SW 4.70 W 6.49 SW No Not Reported No Precipitation     x x Not Reported Not Reported Not Reported 10.00 Clear
03/22/2019 06:46 AM 41.18 39.56 64.76 42.62 88.0 x 5.37 SW 4.92 SW 6.93 SW No Not Reported No Precipitation     x x Not Reported Not Reported Not Reported 10.00 Clear
03/22/2019 06:47 AM 41.18 39.38 64.76 42.44 88.0 x 5.14 SW 3.13 SW 6.93 SW No Not Reported No Precipitation     x x Not Reported Not Reported Not Reported 10.00 Clear
03/22/2019 06:48 AM 41.18 39.38 64.76 42.44 88.0 x 4.70 SW 3.80 SW 6.93 SW No Not Reported No Precipitation     x x Not Reported Not Reported Not Reported 10.00 Clear
03/22/2019 06:49 AM 41.18 39.38 64.76 42.44 87.0 x 4.47 SW 3.80 SW 6.93 SW No Not Reported No Precipitation     x x Not Reported Not Reported Not Reported 10.00 Clear
03/22/2019 06:50 AM 41.00 39.38 64.76 42.44 87.0 x 4.03 SW 4.03 SW 6.93 SW No Not Reported No Precipitation     x x Not Reported Not Reported Not Reported 10.00 Clear
03/22/2019 06:52 AM 41.00 39.20 64.76 42.44 87.0 x 3.36 SW 5.14 SW 6.93 SW No Not Reported No Precipitation     x x Not Reported Not Reported Not Reported 10.00 Clear
03/22/2019 06:53 AM 41.00 39.02 64.76 42.44 87.0 x 4.03 SW 4.25 SW 6.93 SW No Not Reported No Precipitation     x x Not Reported Not Reported Not Reported 10.00 Clear
03/22/2019 06:54 AM 41.00 39.20 64.76 42.44 87.0 x 4.70 SW 4.70 SW 6.93 SW No Not Reported No Precipitation     x x Not Reported Not Reported Not Reported 10.00 Clear
03/22/2019 06:55 AM 41.00 39.02 64.76 42.44 87.0 x 4.92 SW 4.70 SW 6.04 SW No Not Reported No Precipitation     x x Not Reported Not Reported Not Reported 10.00 Clear
03/22/2019 06:56 AM 41.00 39.20 64.76 42.44 87.0 x 4.92 SW 4.47 SW 6.04 SW No Not Reported No Precipitation     x x Not Reported Not Reported Not Reported 10.00 Clear
03/22/2019 06:57 AM 40.82 39.02 64.76 42.44 87.0 x 4.92 SW 4.70 SW 6.71 SW No Not Reported No Precipitation     x x Not Reported Not Reported Not Reported 10.00 Clear
03/22/2019 06:58 AM 41.00 39.20 64.76 42.44 87.0 x 5.14 SW 4.25 SW 6.71 SW No Not Reported No Precipitation     x x Not Reported Not Reported Not Reported 10.00 Clear
03/22/2019 06:59 AM 41.18 39.20 64.76 42.44 87.0 x 4.92 SW 4.70 SW 6.71 SW No Not Reported No Precipitation     x x Not Reported Not Reported Not Reported 10.00 Clear
03/22/2019 07:00 AM 41.00 39.20 64.76 42.44 87.0 x 4.70 SW 4.92 SW 6.71 SW No Not Reported No Precipitation     x x Not Reported Not Reported Not Reported 10.00 Clear
03/22/2019 07:01 AM 41.00 39.02 64.76 42.44 86.0 x 4.47 SW 4.47 SW 6.71 SW No Not Reported No Precipitation     x x Not Reported Not Reported Not Reported 10.00 Clear
03/22/2019 07:02 AM 41.00 39.02 64.76 42.44 86.0 x 4.47 SW 5.37 SW 6.71 SW No Not Reported No Precipitation     x x Not Reported Not Reported Not Reported 10.00 Clear
03/22/2019 07:03 AM 41.00 39.02 64.76 42.44 86.0 x 4.47 SW 4.47 SW 6.71 SW No Not Reported No Precipitation     x x Not Reported Not Reported Not Reported 10.00 Clear
03/22/2019 07:04 AM 41.00 39.02 64.76 42.44 86.0 x 4.25 SW 4.03 SW 6.71 SW No Not Reported No Precipitation     x x Not Reported Not Reported Not Reported 10.00 Clear
03/22/2019 07:05 AM 41.00 38.84 64.76 42.44 86.0 x 4.47 SW 4.47 SW 6.71 SW No Not Reported No Precipitation     x x Not Reported Not Reported Not Reported 10.00 Clear
03/22/2019 07:06 AM 41.00 38.84 64.76 42.44 86.0 x 5.14 SW 5.37 SW 6.04 SW No Not Reported No Precipitation     x x Not Reported Not Reported Not Reported 10.00 Clear
03/22/2019 07:07 AM 41.00 39.02 64.76 42.44 86.0 x 5.14 SW 4.92 SW 5.82 SW No Not Reported No Precipitation     x x Not Reported Not Reported Not Reported 10.00 Clear
03/22/2019 07:08 AM 41.18 39.02 64.76 42.44 86.0 x 4.92 SW 4.92 SW 5.82 SW No Not Reported No Precipitation     x x Not Reported Not Reported Not Reported 10.00 Clear
03/22/2019 07:09 AM 41.18 39.02 64.76 42.44 86.0 x 5.14 SW 5.14 SW 6.49 SW No Not Reported No Precipitation     x x Not Reported Not Reported Not Reported 10.00 Clear
03/22/2019 07:10 AM 41.18 39.02 64.76 42.44 86.0 x 5.37 SW 5.82 SW 6.49 SW No Not Reported No Precipitation     x x Not Reported Not Reported Not Reported 10.00 Clear
03/22/2019 07:11 AM 41.00 39.02 64.76 42.44 86.0 x 5.37 SW 5.82 SW 6.49 SW No Not Reported No Precipitation     x x Not Reported Not Reported Not Reported 10.00 Clear
03/22/2019 07:12 AM 41.00 38.84 64.76 42.44 86.0 x 5.37 SW 4.25 SW 6.49 SW No Not Reported No Precipitation     x x Not Reported Not Reported Not Reported 10.00 Clear
03/22/2019 07:13 AM 41.00 38.84 64.76 42.44 86.0 x 5.37 SW 6.04 SW 6.71 SW No Not Reported No Precipitation     x x Not Reported Not Reported Not Reported 10.00 Clear
03/22/2019 07:14 AM 41.00 38.84 64.76 42.44 86.0 x 5.14 SW 3.36 SW 6.71 SW No Not Reported No Precipitation     x x Not Reported Not Reported Not Reported 10.00 Clear
03/22/2019 07:15 AM 41.00 38.84 64.76 42.44 85.0 x 4.47 SW 5.14 SW 6.71 SW No Not Reported No Precipitation     x x Not Reported Not Reported Not Reported 10.00 Clear
03/22/2019 07:16 AM 40.82 38.84 64.76 42.44 85.0 x 4.70 SW 4.25 SW 7.83 SW No Not Reported No Precipitation     x x Not Reported Not Reported Not Reported 10.00 Clear
03/22/2019 07:17 AM 40.82 38.66 64.76 42.44 85.0 x 5.14 SW 3.36 SW 7.83 SW No Not Reported No Precipitation     x x Not Reported Not Reported Not Reported 10.00 Clear
03/22/2019 07:18 AM 40.82 38.66 64.76 42.44 85.0 x 4.92 SW 4.25 W 7.83 SW No Not Reported No Precipitation     x x Not Reported Not Reported Not Reported 10.00 Clear
03/22/2019 07:19 AM 41.00 38.84 64.76 42.44 85.0 x 4.47 SW 4.47 SW 7.83 SW No Not Reported No Precipitation     x x Not Reported Not Reported Not Reported 10.00 Clear
03/22/2019 07:20 AM 41.00 38.66 64.76 42.44 84.0 x 4.03 SW 3.36 SW 7.83 SW No Not Reported No Precipitation     x x Not Reported Not Reported Not Reported 10.00 Clear
03/22/2019 07:21 AM 41.00 38.66 64.76 42.44 84.0 x 3.80 SW 4.92 SW 7.83 SW No Not Reported No Precipitation     x x Not Reported Not Reported Not Reported 10.00 Clear
03/22/2019 07:22 AM 41.00 38.66 64.76 42.44 84.0 x 4.25 SW 5.14 SW 7.83 SW No Not Reported No Precipitation     x x Not Reported Not Reported Not Reported 10.00 Clear
03/22/2019 07:23 AM 41.00 38.66 64.76 42.44 84.0 x 4.25 SW 4.03 W 7.83 SW No Not Reported No Precipitation     x x Not Reported Not Reported Not Reported 10.00 Clear
03/22/2019 07:24 AM 41.00 38.66 64.76 42.44 84.0 x 4.47 SW 4.92 SW 7.83 SW No Not Reported No Precipitation     x x Not Reported Not Reported Not Reported 10.00 Clear
03/22/2019 07:25 AM 41.18 38.84 64.76 42.44 84.0 x 4.92 SW 4.03 SW 7.83 SW No Not Reported No Precipitation     x x Not Reported Not Reported Not Reported 10.00 Clear
03/22/2019 07:26 AM 41.18 38.84 64.76 42.44 84.0 x 5.14 SW 4.25 SW 6.26 SW No Not Reported No Precipitation     x x Not Reported Not Reported Not Reported 10.00 Clear
03/22/2019 07:27 AM 41.18 38.84 64.76 42.44 84.0 x 4.92 SW 3.58 SW 6.71 SW No Not Reported No Precipitation     x x Not Reported Not Reported Not Reported 10.00 Clear
03/22/2019 07:28 AM 41.36 38.84 64.76 42.44 84.0 x 4.92 SW 4.03 SW 6.71 SW No Not Reported No Precipitation     x x Not Reported Not Reported Not Reported 10.00 Clear
03/22/2019 07:29 AM 41.18 38.84 64.76 42.44 83.0 x 4.70 SW 3.80 SW 6.71 SW No Not Reported No Precipitation     x x Not Reported Not Reported Not Reported 10.00 Clear
03/22/2019 07:30 AM 41.18 38.66 64.76 42.44 83.0 x 4.92 SW 4.92 SW 7.16 SW No Not Reported No Precipitation     x x Not Reported Not Reported Not Reported 10.00 Clear
03/22/2019 07:31 AM 41.36 38.84 64.76 42.44 83.0 x 4.92 SW 3.58 SW 7.16 SW No Not Reported No Precipitation     x x Not Reported Not Reported Not Reported 10.00 Clear
03/22/2019 07:32 AM 41.36 38.84 64.76 42.44 84.0 x 4.47 SW 5.59 SW 7.16 SW No Not Reported No Precipitation     x x Not Reported Not Reported Not Reported 10.00 Clear
03/22/2019 07:33 AM 41.36 39.02 64.76 42.44 83.0 x 4.70 SW 5.37 SW 7.16 SW No Not Reported No Precipitation     x x Not Reported Not Reported Not Reported 10.00 Clear
03/22/2019 07:34 AM 41.18 38.84 64.76 42.44 84.0 x 5.14 SW 5.14 SW 7.16 SW No Not Reported No Precipitation     x x Not Reported Not Reported Not Reported 10.00 Clear
03/22/2019 07:35 AM 41.18 38.84 64.76 42.44 84.0 x 4.92 SW 4.92 SW 7.16 SW No Not Reported No Precipitation     x x Not Reported Not Reported Not Reported 10.00 Clear
03/22/2019 07:36 AM 41.36 39.02 64.76 42.44 84.0 x 4.92 SW 4.70 SW 7.16 SW No Not Reported No Precipitation     x x Not Reported Not Reported Not Reported 10.00 Clear
03/22/2019 07:37 AM 41.18 38.84 64.76 42.44 84.0 x 4.92 SW 4.25 SW 7.16 SW No Not Reported No Precipitation     x x Not Reported Not Reported Not Reported 10.00 Clear
03/22/2019 07:38 AM 41.18 38.84 64.76 42.44 84.0 x 4.92 SW 5.59 SW 7.16 SW No Not Reported No Precipitation     x x Not Reported Not Reported Not Reported 10.00 Clear
03/22/2019 07:39 AM 41.36 39.02 64.76 42.44 84.0 x 4.92 SW 4.92 SW 7.16 SW No Not Reported No Precipitation     x x Not Reported Not Reported Not Reported 10.00 Clear
03/22/2019 07:40 AM 41.18 38.84 64.76 42.44 84.0 x 4.70 SW 4.25 SW 6.93 SW No Not Reported No Precipitation     x x Not Reported Not Reported Not Reported 10.00 Clear
03/22/2019 07:41 AM 41.00 38.66 64.76 42.44 84.0 x 4.70 SW 5.14 SW 6.93 SW No Not Reported No Precipitation     x x Not Reported Not Reported Not Reported 10.00 Clear
03/22/2019 07:42 AM 41.18 38.84 64.76 42.44 84.0 x 4.92 SW 5.59 SW 6.93 SW No Not Reported No Precipitation     x x Not Reported Not Reported Not Reported 10.00 Clear
03/22/2019 07:43 AM 41.18 39.02 64.76 42.44 85.0 x 5.37 SW 4.70 SW 6.93 SW No Not Reported No Precipitation     x x Not Reported Not Reported Not Reported 10.00 Clear
03/22/2019 07:44 AM 41.18 39.02 64.76 42.44 85.0 x 5.59 SW 5.82 SW 6.93 SW No Not Reported No Precipitation     x x Not Reported Not Reported Not Reported 10.00 Clear
03/22/2019 07:45 AM 41.18 39.02 64.76 42.44 85.0 x 5.37 SW 5.37 SW 6.93 SW No Not Reported No Precipitation     x x Not Reported Not Reported Not Reported 10.00 Clear
03/22/2019 07:47 AM 41.18 39.02 64.76 42.44 85.0 x 4.70 SW 4.70 SW 6.93 SW No Not Reported No Precipitation     x x Not Reported Not Reported Not Reported 10.00 Clear
03/22/2019 07:48 AM 41.18 39.20 64.76 42.44 85.0 x 4.25 SW 5.82 SW 6.93 SW No Not Reported No Precipitation     x x Not Reported Not Reported Not Reported 10.00 Clear
03/22/2019 07:50 AM 41.36 38.84 64.76 42.44 84.0 x 4.70 SW 5.14 SW 6.93 SW No Not Reported No Precipitation     x x Not Reported Not Reported Not Reported 10.00 Clear
03/22/2019 07:52 AM 41.36 38.84 64.76 42.44 83.0 x 5.14 SW 4.70 SW 6.49 SW No Not Reported No Precipitation     x x Not Reported Not Reported Not Reported 10.00 Clear
03/22/2019 07:53 AM 41.54 39.02 64.76 42.44 83.0 x 5.14 SW 4.92 SW 6.49 SW No Not Reported No Precipitation     x x Not Reported Not Reported Not Reported 10.00 Clear
03/22/2019 07:54 AM 41.36 38.84 64.76 42.44 83.0 x 5.37 SW 4.92 SW 6.93 SW No Not Reported No Precipitation     x x Not Reported Not Reported Not Reported 10.00 Clear
03/22/2019 07:55 AM 41.36 38.66 64.76 42.44 82.0 x 4.92 SW 5.59 SW 6.93 SW No Not Reported No Precipitation     x x Not Reported Not Reported Not Reported 10.00 Clear
03/22/2019 07:56 AM 41.54 38.66 64.76 42.44 81.0 x 4.92 SW 4.92 SW 6.93 SW No Not Reported No Precipitation     x x Not Reported Not Reported Not Reported 10.00 Clear
03/22/2019 07:57 AM 41.54 38.66 64.76 42.44 81.0 x 5.14 SW 6.49 SW 6.93 SW No Not Reported No Precipitation     x x Not Reported Not Reported Not Reported 10.00 Clear
03/22/2019 07:58 AM 41.54 38.66 64.76 42.44 81.0 x 4.47 SW 4.70 SW 6.93 SW No Not Reported No Precipitation     x x Not Reported Not Reported Not Reported 10.00 Clear
03/22/2019 07:59 AM 41.36 38.48 64.76 42.44 81.0 x 4.47 SW 4.47 SW 6.93 SW No Not Reported No Precipitation     x x Not Reported Not Reported Not Reported 10.00 Clear
03/22/2019 08:00 AM 41.54 38.84 64.76 42.44 81.0 x 4.70 SW 3.80 SW 6.93 SW No Not Reported No Precipitation     x x Not Reported Not Reported Not Reported 10.00 Clear
03/22/2019 08:01 AM 41.54 38.66 64.76 42.44 81.0 x 4.47 SW 4.47 SW 6.93 SW No Not Reported No Precipitation     x x Not Reported Not Reported Not Reported 10.00 Clear
03/22/2019 08:02 AM 41.54 38.66 64.76 42.44 81.0 x 4.03 SW 7.16 SW 7.38 SW No Not Reported No Precipitation     x x Not Reported Not Reported Not Reported 10.00 Clear
03/22/2019 08:03 AM 41.54 38.66 64.76 42.44 81.0 x 4.92 SW 5.37 SW 7.38 SW No Not Reported No Precipitation     x x Not Reported Not Reported Not Reported 10.00 Clear
03/22/2019 08:04 AM 41.36 38.48 64.76 42.44 80.0 x 6.26 SW 5.59 SW 9.17 SW No Not Reported No Precipitation     x x Not Reported Not Reported Not Reported 10.00 Clear
03/22/2019 08:05 AM 41.54 38.48 64.76 42.44 80.0 x 6.26 SW 5.82 SW 9.17 SW No Not Reported No Precipitation     x x Not Reported Not Reported Not Reported 10.00 Clear
03/22/2019 08:06 AM 41.54 38.48 64.76 42.44 80.0 x 5.37 SW 4.47 W 9.17 SW No Not Reported No Precipitation     x x Not Reported Not Reported Not Reported 10.00 Clear
03/22/2019 08:07 AM 41.54 38.48 64.76 42.44 80.0 x 4.92 SW 6.71 SW 9.17 SW No Not Reported No Precipitation     x x Not Reported Not Reported Not Reported 10.00 Clear
03/22/2019 08:08 AM 41.54 38.48 64.76 42.44 80.0 x 5.37 SW 5.14 SW 9.17 SW No Not Reported No Precipitation     x x Not Reported Not Reported Not Reported 10.00 Clear
03/22/2019 08:09 AM 41.72 38.48 64.76 42.44 79.0 x 5.14 SW 4.47 SW 9.17 SW No Not Reported No Precipitation     x x Not Reported Not Reported Not Reported 10.00 Clear
03/22/2019 08:10 AM 41.72 38.66 64.76 42.44 80.0 x 4.70 SW 5.37 SW 9.17 SW No Not Reported No Precipitation     x x Not Reported Not Reported Not Reported 10.00 Clear
03/22/2019 08:11 AM 41.72 38.66 64.76 42.44 80.0 x 4.70 SW 5.82 SW 9.17 SW No Not Reported No Precipitation     x x Not Reported Not Reported Not Reported 10.00 Clear
03/22/2019 08:12 AM 41.72 38.48 64.76 42.44 79.0 x 4.70 SW 2.68 SW 9.17 SW No Not Reported No Precipitation     x x Not Reported Not Reported Not Reported 10.00 Clear
03/22/2019 08:13 AM 41.72 38.48 64.76 42.44 79.0 x 4.47 SW 5.37 SW 7.83 SW No Not Reported No Precipitation     x x Not Reported Not Reported Not Reported 10.00 Clear
03/22/2019 08:14 AM 41.72 38.66 64.76 42.44 80.0 x 4.25 SW 5.14 SW 7.83 SW No Not Reported No Precipitation     x x Not Reported Not Reported Not Reported 10.00 Clear
03/22/2019 08:15 AM 41.72 38.66 64.76 42.44 79.0 x 4.70 SW 4.92 SW 7.83 SW No Not Reported No Precipitation     x x Not Reported Not Reported Not Reported 10.00 Clear
03/22/2019 08:16 AM 41.90 38.66 64.76 42.44 79.0 x 4.92 SW 5.37 SW 7.83 SW No Not Reported No Precipitation     x x Not Reported Not Reported Not Reported 10.00 Clear
03/22/2019 08:17 AM 41.72 38.66 64.76 42.44 80.0 x 4.92 SW 3.36 SW 6.71 SW No Not Reported No Precipitation     x x Not Reported Not Reported Not Reported 10.00 Clear
03/22/2019 08:18 AM 41.72 38.66 64.76 42.44 80.0 x 4.70 SW 4.92 SW 6.71 SW No Not Reported No Precipitation     x x Not Reported Not Reported Not Reported 10.00 Clear
03/22/2019 08:19 AM 41.90 38.84 64.76 42.44 79.0 x 4.47 SW 5.59 SW 6.71 SW No Not Reported No Precipitation     x x Not Reported Not Reported Not Reported 10.00 Clear
03/22/2019 08:20 AM 41.72 38.66 64.76 42.44 79.0 x 4.92 SW 5.37 SW 6.71 SW No Not Reported No Precipitation     x x Not Reported Not Reported Not Reported 10.00 Clear
03/22/2019 08:21 AM 41.90 38.66 64.76 42.44 79.0 x 4.92 SW 5.59 SW 6.71 SW No Not Reported No Precipitation     x x Not Reported Not Reported Not Reported 10.00 Clear
03/22/2019 08:23 AM 41.72 38.48 64.76 42.44 79.0 x 5.37 SW 6.49 SW 7.38 SW No Not Reported No Precipitation     x x Not Reported Not Reported Not Reported 10.00 Clear
03/22/2019 08:24 AM 41.72 38.66 64.76 42.44 80.0 x 5.59 SW 4.92 SW 7.83 SW No Not Reported No Precipitation     x x Not Reported Not Reported Not Reported 10.00 Clear
03/22/2019 08:25 AM 41.90 38.84 64.76 42.44 80.0 x 5.37 SW 5.37 SW 7.83 SW No Not Reported No Precipitation     x x Not Reported Not Reported Not Reported 10.00 Clear
03/22/2019 08:26 AM 41.72 38.66 64.76 42.44 80.0 x 5.59 SW 6.49 SW 7.83 SW No Not Reported No Precipitation     x x Not Reported Not Reported Not Reported 10.00 Clear
03/22/2019 08:27 AM 41.72 38.66 64.76 42.44 80.0 x 6.04 SW 6.71 SW 7.83 SW No Not Reported No Precipitation     x x Not Reported Not Reported Not Reported 10.00 Clear
03/22/2019 08:28 AM 41.90 38.66 64.76 42.44 79.0 x 5.82 SW 7.16 SW 7.83 SW No Not Reported No Precipitation     x x Not Reported Not Reported Not Reported 10.00 Clear
03/22/2019 08:29 AM 41.90 38.66 64.76 42.44 79.0 x 5.59 SW 4.92 W 7.83 SW No Not Reported No Precipitation     x x Not Reported Not Reported Not Reported 10.00 Clear
03/22/2019 08:30 AM 41.90 38.66 64.76 42.44 79.0 x 5.59 SW 5.59 SW 8.05 SW No Not Reported No Precipitation     x x Not Reported Not Reported Not Reported 10.00 Clear
03/22/2019 08:31 AM 42.08 38.66 64.76 42.44 78.0 x 5.37 SW 8.95 SW 8.05 SW No Not Reported No Precipitation     x x Not Reported Not Reported Not Reported 10.00 Clear
03/22/2019 08:32 AM 41.90 38.48 64.76 42.44 78.0 x 5.59 SW 4.47 SW 8.95 SW No Not Reported No Precipitation     x x Not Reported Not Reported Not Reported 10.00 Clear
03/22/2019 08:33 AM 42.08 38.66 64.76 42.44 78.0 x 5.82 SW 6.71 SW 9.40 SW No Not Reported No Precipitation     x x Not Reported Not Reported Not Reported 10.00 Clear
03/22/2019 08:34 AM 42.08 38.66 64.76 42.44 78.0 x 5.59 SW 5.59 SW 9.40 SW No Not Reported No Precipitation     x x Not Reported Not Reported Not Reported 10.00 Clear
03/22/2019 08:35 AM 42.08 38.66 64.76 42.44 78.0 x 5.37 SW 3.58 SW 9.40 SW No Not Reported No Precipitation     x x Not Reported Not Reported Not Reported 10.00 Clear
03/22/2019 08:37 AM 42.26 38.84 64.76 42.44 78.0 x 4.70 SW 5.59 SW 9.40 SW No Not Reported No Precipitation     x x Not Reported Not Reported Not Reported 10.00 Clear
03/22/2019 08:38 AM 42.26 38.84 64.76 42.44 78.0 x 5.14 SW 4.03 SW 9.40 SW No Not Reported No Precipitation     x x Not Reported Not Reported Not Reported 10.00 Clear
03/22/2019 08:39 AM 42.26 38.84 64.76 42.44 78.0 x 5.14 SW 7.38 SW 9.40 SW No Not Reported No Precipitation     x x Not Reported Not Reported Not Reported 10.00 Clear
03/22/2019 08:40 AM 42.26 38.66 64.76 42.44 77.0 x 5.14 SW 6.49 SW 9.40 SW No Not Reported No Precipitation     x x Not Reported Not Reported Not Reported 10.00 Clear
03/22/2019 08:41 AM 42.26 38.66 64.76 42.44 77.0 x 5.37 SW 4.47 SW 9.40 SW No Not Reported No Precipitation     x x Not Reported Not Reported Not Reported 10.00 Clear
03/22/2019 08:42 AM 42.26 38.66 64.76 42.44 78.0 x 4.47 SW 2.46 SW 8.28 SW No Not Reported No Precipitation     x x Not Reported Not Reported Not Reported 10.00 Clear
03/22/2019 08:43 AM 42.26 38.84 64.76 42.44 78.0 x 4.03 SW 5.37 SW 8.28 SW No Not Reported No Precipitation     x x Not Reported Not Reported Not Reported 10.00 Clear
03/22/2019 08:44 AM 42.26 38.84 64.76 42.44 78.0 x 4.47 SW 3.13 SW 8.28 SW No Not Reported No Precipitation     x x Not Reported Not Reported Not Reported 10.00 Clear
03/22/2019 08:45 AM 42.44 38.84 64.76 42.44 77.0 x 4.47 SW 4.47 S 8.28 SW No Not Reported No Precipitation     x x Not Reported Not Reported Not Reported 10.00 Clear
03/22/2019 08:46 AM 42.44 38.84 64.76 42.44 77.0 x 4.03 SW 6.04 SW 8.28 SW No Not Reported No Precipitation     x x Not Reported Not Reported Not Reported 10.00 Clear
03/22/2019 08:47 AM 42.26 38.84 64.76 42.44 77.0 x 4.47 SW 4.03 S 7.61 S No Not Reported No Precipitation     x x Not Reported Not Reported Not Reported 10.00 Clear
03/22/2019 08:48 AM 42.44 38.84 64.76 42.44 77.0 x 4.92 S 3.80 SW 7.61 S No Not Reported No Precipitation     x x Not Reported Not Reported Not Reported 10.00 Clear
03/22/2019 08:49 AM 42.44 39.02 64.76 42.44 77.0 x 4.92 SW 5.14 SW 7.61 SW No Not Reported No Precipitation     x x Not Reported Not Reported Not Reported 10.00 Other
03/22/2019 08:50 AM 42.62 39.02 64.76 42.44 77.0 x 4.25 SW 3.13 W 7.61 SW No Not Reported No Precipitation     x x Not Reported Not Reported Not Reported 10.00 Clear
03/22/2019 08:51 AM 42.62 39.02 64.76 42.44 77.0 x 3.80 SW 5.37 S 7.61 SW No Not Reported No Precipitation     x x Not Reported Not Reported Not Reported 10.00 Clear
03/22/2019 08:52 AM 42.44 39.02 64.76 42.44 77.0 x 4.47 SW 4.47 SW 7.61 SW No Not Reported No Precipitation     x x Not Reported Not Reported Not Reported 10.00 Clear
03/22/2019 08:53 AM 42.44 39.02 64.76 42.44 77.0 x 4.92 SW 6.04 SW 7.61 SW No Not Reported No Precipitation     x x Not Reported Not Reported Not Reported 10.00 Clear
03/22/2019 08:54 AM 42.62 38.84 64.76 42.44 77.0 x 4.25 SW 3.58 SW 7.61 SW No Not Reported No Precipitation     x x Not Reported Not Reported Not Reported 10.00 Clear
03/22/2019 08:55 AM 42.62 39.02 64.76 42.44 77.0 x 4.25 SW 5.59 W 7.61 SW No Not Reported No Precipitation     x x Not Reported Not Reported Not Reported 10.00 Clear
03/22/2019 08:56 AM 42.62 38.84 64.76 42.44 76.0 x 4.70 SW 6.04 SW 7.61 SW No Not Reported No Precipitation     x x Not Reported Not Reported Not Reported 10.00 Clear
03/22/2019 08:57 AM x 38.84 64.76 42.44 76.0 x 4.25 SW 2.68 SW 7.61 SW No Not Reported No Precipitation     x x Not Reported Not Reported Not Reported 10.00 Clear
03/22/2019 08:58 AM 42.62 39.02 64.76 42.44 76.0 x 4.25 SW 4.25 SW 7.61 SW No Not Reported No Precipitation     x x Not Reported Not Reported Not Reported 10.00 Clear
03/22/2019 08:59 AM 42.80 39.02 64.76 42.44 76.0 x 4.92 SW 4.70 SW 7.61 SW No Not Reported No Precipitation     x x Not Reported Not Reported Not Reported 10.00 Clear
03/22/2019 09:00 AM 42.80 39.20 64.76 42.44 76.0 x 4.92 SW 4.70 SW 7.61 SW No Not Reported No Precipitation     x x Not Reported Not Reported Not Reported 10.00 Clear
03/22/2019 09:01 AM 42.80 39.20 64.76 42.44 76.0 x 4.92 SW 4.47 SW 7.61 SW No Not Reported No Precipitation     x x Not Reported Not Reported Not Reported 10.00 Clear
03/22/2019 09:02 AM 42.80 39.02 64.76 42.44 76.0 x 4.70 SW 5.37 SW 7.61 SW No Not Reported No Precipitation     x x Not Reported Not Reported Not Reported 10.00 Clear
03/22/2019 09:03 AM 42.80 39.20 64.76 42.44 76.0 x 4.70 SW 5.37 SW 7.61 SW No Not Reported No Precipitation     x x Not Reported Not Reported Not Reported 10.00 Clear
03/22/2019 09:04 AM 42.98 39.38 64.76 42.44 77.0 x 5.14 SW 5.59 SW 7.61 SW No Not Reported No Precipitation     x x Not Reported Not Reported Not Reported 10.00 Clear
03/22/2019 09:05 AM 42.98 39.38 64.76 42.44 76.0 x 5.14 SW 4.47 SW 7.61 SW No Not Reported No Precipitation     x x Not Reported Not Reported Not Reported 10.00 Clear
03/22/2019 09:07 AM 43.16 39.38 64.76 42.44 76.0 x 5.59 SW 6.71 SW 9.17 SW No Not Reported No Precipitation     x x Not Reported Not Reported Not Reported 10.00 Clear
03/22/2019 09:08 AM 42.98 39.38 64.76 42.44 76.0 x 5.37 SW 3.80 W 9.17 SW No Not Reported No Precipitation     x x Not Reported Not Reported Not Reported 10.00 Clear
03/22/2019 09:09 AM 43.16 39.38 64.76 42.44 76.0 x 5.59 SW 6.49 SW 9.17 SW No Not Reported No Precipitation     x x Not Reported Not Reported Not Reported 10.00 Clear
03/22/2019 09:10 AM 43.16 39.38 64.76 42.44 76.0 x 5.14 SW 5.82 W 9.17 SW No Not Reported No Precipitation     x x Not Reported Not Reported Not Reported 10.00 Clear
03/22/2019 09:11 AM 43.16 39.56 64.76 42.44 75.0 x 4.92 SW 7.61 SW 9.17 SW No Not Reported No Precipitation     x x Not Reported Not Reported Not Reported 10.00 Clear
03/22/2019 09:12 AM 43.16 39.20 64.76 42.44 75.0 x 5.59 SW 6.26 SW 9.17 SW No Not Reported No Precipitation     x x Not Reported Not Reported Not Reported 10.00 Clear
03/22/2019 09:13 AM 43.34 39.20 64.76 42.44 74.0 x 5.59 SW 7.38 SW 9.17 SW No Not Reported No Precipitation     x x Not Reported Not Reported Not Reported 10.00 Clear
03/22/2019 09:14 AM 43.16 39.02 64.76 42.44 74.0 x 6.04 SW 7.83 SW 9.17 SW No Not Reported No Precipitation     x x Not Reported Not Reported Not Reported 10.00 Clear
03/22/2019 09:15 AM 43.16 39.20 64.76 42.44 75.0 x 6.04 SW 3.58 SW 9.17 SW No Not Reported No Precipitation     x x Not Reported Not Reported Not Reported 10.00 Clear
03/22/2019 09:16 AM 43.16 39.20 64.76 42.44 74.0 x 5.37 SW 6.71 W 9.17 SW No Not Reported No Precipitation     x x Not Reported Not Reported Not Reported 10.00 Clear
03/22/2019 09:17 AM 43.34 39.20 64.76 42.44 74.0 x 5.37 SW 6.49 SW 8.95 SW No Not Reported No Precipitation     x x Not Reported Not Reported Not Reported 10.00 Clear
03/22/2019 09:18 AM 43.16 39.02 64.76 42.44 74.0 x 5.82 SW 4.92 SW 8.95 SW No Not Reported No Precipitation     x x Not Reported Not Reported Not Reported 10.00 Other
03/22/2019 09:19 AM 43.16 39.02 64.76 42.44 74.0 x 5.37 SW 4.47 SW 8.95 SW No Not Reported No Precipitation     x x Not Reported Not Reported Not Reported 10.00 Clear
03/22/2019 09:20 AM 43.34 39.02 64.76 42.44 73.0 x 4.25 SW 4.03 W 8.95 SW No Not Reported No Precipitation     x x Not Reported Not Reported Not Reported 10.00 Clear
03/22/2019 09:21 AM 43.52 39.38 64.76 42.44 74.0 x 4.03 SW 6.26 SW 8.95 SW No Not Reported No Precipitation     x x Not Reported Not Reported Not Reported 10.00 Clear
03/22/2019 09:23 AM 43.70 39.56 64.76 42.44 74.0 x 4.25 SW 5.82 SW 8.95 SW No Not Reported No Precipitation     x x Not Reported Not Reported Not Reported 10.00 Clear
03/22/2019 09:24 AM 43.52 39.20 64.76 42.44 73.0 x 4.92 SW 3.13 SW 8.72 SW No Not Reported No Precipitation     x x Not Reported Not Reported Not Reported 10.00 Clear
03/22/2019 09:25 AM 43.70 39.38 64.76 42.44 73.0 x 4.25 SW 3.58 SW 8.72 SW No Not Reported No Precipitation     x x Not Reported Not Reported Not Reported 10.00 Clear
03/22/2019 09:26 AM 43.70 39.56 64.76 42.44 74.0 x 4.25 SW 4.25 SW 8.72 SW No Not Reported No Precipitation     x x Not Reported Not Reported Not Reported 10.00 Clear
03/22/2019 09:27 AM 43.88 39.74 64.76 42.44 74.0 x 4.70 SW 4.25 W 7.61 W No Not Reported No Precipitation     x x Not Reported Not Reported Not Reported 10.00 Clear
03/22/2019 09:28 AM 43.88 39.74 64.76 42.44 74.0 x 4.25 SW 3.58 SW 7.61 W No Not Reported No Precipitation     x x Not Reported Not Reported Not Reported 10.00 Clear
03/22/2019 09:29 AM 44.06 39.92 64.76 42.44 74.0 x 4.03 SW 4.70 S 7.61 W No Not Reported No Precipitation     x x Not Reported Not Reported Not Reported 10.00 Clear
03/22/2019 09:30 AM 44.06 40.10 64.76 42.44 74.0 x 4.03 SW 4.92 SW 7.61 W No Not Reported No Precipitation     x x Not Reported Not Reported Not Reported 10.00 Clear
03/22/2019 09:31 AM 44.24 39.92 64.76 42.44 74.0 x 4.47 SW 4.47 SW 7.38 SW No Not Reported No Precipitation     x x Not Reported Not Reported Not Reported 10.00 Clear
03/22/2019 09:32 AM 44.06 39.92 64.76 42.44 73.0 x 5.59 SW 7.61 SW 7.83 SW No Not Reported No Precipitation     x x Not Reported Not Reported Not Reported 10.00 Clear
03/22/2019 09:33 AM 44.24 40.10 64.76 42.44 73.0 x 5.14 SW 4.03 SW 7.83 SW No Not Reported No Precipitation     x x Not Reported Not Reported Not Reported 10.00 Clear
03/22/2019 09:34 AM 44.42 39.92 64.76 42.44 73.0 x 5.82 SW 7.16 SW 9.17 SW No Not Reported No Precipitation     x x Not Reported Not Reported Not Reported 10.00 Clear
03/22/2019 09:35 AM 44.42 40.10 64.76 42.44 73.0 x 6.26 SW 4.92 SW 9.17 SW No Not Reported No Precipitation     x x Not Reported Not Reported Not Reported 10.00 Clear
03/22/2019 09:36 AM 44.24 39.92 64.76 42.44 72.0 x 5.59 SW 3.80 SW 9.17 SW No Not Reported No Precipitation     x x Not Reported Not Reported Not Reported 10.00 Clear
03/22/2019 09:37 AM 44.42 40.10 64.76 42.44 72.0 x 4.92 SW 6.93 W 9.17 SW No Not Reported No Precipitation     x x Not Reported Not Reported Not Reported 10.00 Clear
03/22/2019 09:38 AM 44.78 40.28 64.76 42.44 73.0 x 4.70 SW 3.58 W 9.17 SW No Not Reported No Precipitation     x x Not Reported Not Reported Not Reported 10.00 Clear
03/22/2019 09:39 AM 44.60 40.10 64.76 42.44 72.0 x 4.70 SW 4.70 SW 9.17 SW No Not Reported No Precipitation     x x Not Reported Not Reported Not Reported 10.00 Clear
03/22/2019 09:40 AM 44.60 39.92 64.76 42.44 71.0 x 5.14 SW 6.04 SW 9.17 SW No Not Reported No Precipitation     x x Not Reported Not Reported Not Reported 10.00 Clear
03/22/2019 09:41 AM 44.60 39.92 64.76 42.44 71.0 x 6.26 SW 5.14 SW 9.62 SW No Not Reported No Precipitation     x x Not Reported Not Reported Not Reported 10.00 Clear
03/22/2019 09:42 AM 44.60 39.92 64.76 42.44 71.0 x 6.26 SW 5.82 SW 9.62 SW No Not Reported No Precipitation     x x Not Reported Not Reported Not Reported 10.00 Clear
03/22/2019 09:43 AM 44.78 40.28 64.76 42.44 71.0 x 4.25 SW 4.47 S 9.62 SW No Not Reported No Precipitation     x x Not Reported Not Reported Not Reported 10.00 Clear
03/22/2019 09:44 AM 44.96 40.28 64.76 42.44 71.0 x 4.47 SW 7.83 SW 9.62 SW No Not Reported No Precipitation     x x Not Reported Not Reported Not Reported 10.00 Clear
03/22/2019 09:45 AM 44.78 40.28 64.76 42.44 71.0 x 6.26 SW 8.95 SW 9.62 SW No Not Reported No Precipitation     x x Not Reported Not Reported Not Reported 10.00 Clear
03/22/2019 09:46 AM 44.60 39.74 64.76 42.44 69.0 x 6.93 SW 8.72 SW 10.29 SW No Not Reported No Precipitation     x x Not Reported Not Reported Not Reported 10.00 Clear
03/22/2019 09:47 AM 44.96 39.92 64.76 42.44 70.0 x 6.26 SW 3.58 S 10.29 SW No Not Reported No Precipitation     x x Not Reported Not Reported Not Reported 10.00 Clear
03/22/2019 09:48 AM 44.96 40.28 64.76 42.44 70.0 x 5.37 SW 8.28 SW 10.29 SW No Not Reported No Precipitation     x x Not Reported Not Reported Not Reported 10.00 Clear
03/22/2019 09:49 AM 44.96 39.92 64.76 42.44 69.0 x 6.04 SW 4.70 SW 10.29 SW No Not Reported No Precipitation     x x Not Reported Not Reported Not Reported 10.00 Clear
03/22/2019 09:50 AM 44.96 40.10 64.76 42.44 69.0 x 5.37 SW 3.80 SW 10.29 SW No Not Reported No Precipitation     x x Not Reported Not Reported Not Reported 10.00 Clear
03/22/2019 09:51 AM 45.14 40.10 64.76 42.44 69.0 x 5.14 SW 6.04 SW 10.29 SW No Not Reported No Precipitation     x x Not Reported Not Reported Not Reported 10.00 Clear
03/22/2019 09:52 AM 44.96 39.56 64.76 42.44 68.0 x 5.59 SW 3.13 SW 10.29 SW No Not Reported No Precipitation     x x Not Reported Not Reported Not Reported 10.00 Clear
03/22/2019 09:53 AM 45.14 40.10 64.76 42.44 69.0 x 4.92 SW 6.49 SW 10.29 SW No Not Reported No Precipitation     x x Not Reported Not Reported Not Reported 10.00 Clear
03/22/2019 09:54 AM 45.32 40.10 64.76 42.44 69.0 x 4.92 SW 4.70 SW 10.29 SW No Not Reported No Precipitation     x x Not Reported Not Reported Not Reported 10.00 Clear
03/22/2019 09:55 AM 45.32 40.10 64.76 42.44 68.0 x 4.25 SW 3.13 S 9.17 SW No Not Reported No Precipitation     x x Not Reported Not Reported Not Reported 10.00 Clear
03/22/2019 09:56 AM 45.50 40.46 64.76 42.44 69.0 x 3.36 SW 3.36 SW 9.17 SW No Not Reported No Precipitation     x x Not Reported Not Reported Not Reported 10.00 Clear
03/22/2019 09:58 AM 45.68 40.28 64.76 42.44 68.0 x 4.47 SW 3.36 SW 9.17 SW No Not Reported No Precipitation     x x Not Reported Not Reported Not Reported 10.00 Clear
03/22/2019 09:59 AM 45.68 40.64 64.76 42.44 68.0 x 4.47 SW 5.14 SW 9.17 SW No Not Reported No Precipitation     x x Not Reported Not Reported Not Reported 10.00 Clear
03/22/2019 10:00 AM 45.86 40.46 64.76 42.44 68.0 x 4.70 SW 6.49 SW 9.17 SW No Not Reported No Precipitation     x x Not Reported Not Reported Not Reported 10.00 Clear
03/22/2019 10:01 AM 45.86 40.46 64.76 42.44 67.0 x 4.92 SW 6.04 SW 9.17 SW No Not Reported No Precipitation     x x Not Reported Not Reported Not Reported 10.00 Clear
03/22/2019 10:02 AM 46.22 41.00 64.76 42.44 68.0 x 4.25 SW 2.24 SW 9.17 SW No Not Reported No Precipitation     x x Not Reported Not Reported Not Reported 10.00 Clear
03/22/2019 10:03 AM 46.22 40.82 64.76 42.44 67.0 x 4.92 SW 4.47 W 8.72 SW No Not Reported No Precipitation     x x Not Reported Not Reported Not Reported 10.00 Clear
03/22/2019 10:04 AM 46.04 40.64 64.76 42.44 66.0 x 6.04 SW 6.26 SW 9.40 SW No Not Reported Other     x x Not Reported Not Reported Not Reported 10.00 Clear
03/22/2019 10:05 AM 46.04 40.46 64.76 42.44 66.0 x 5.82 SW 8.28 SW 9.40 SW No Not Reported No Precipitation     x x Not Reported Not Reported Not Reported 10.00 Clear
03/22/2019 10:06 AM 46.04 40.46 64.76 42.44 66.0 x 6.71 SW 4.92 S 10.29 SW No Not Reported No Precipitation     x x Not Reported Not Reported Not Reported 10.00 Clear
03/22/2019 10:07 AM 46.22 40.46 64.76 42.44 66.0 x 6.49 SW 6.93 SW 10.29 SW No Not Reported No Precipitation     x x Not Reported Not Reported Not Reported 10.00 Clear
03/22/2019 10:08 AM 46.40 40.82 64.76 42.44 66.0 x 5.37 SW 4.92 SW 10.29 SW No Not Reported No Precipitation     x x Not Reported Not Reported Not Reported 10.00 Clear
03/22/2019 10:09 AM 46.40 41.00 64.76 42.44 67.0 x 4.70 SW 3.13 SW 10.29 SW No Not Reported No Precipitation     x x Not Reported Not Reported Not Reported 10.00 Clear
03/22/2019 10:10 AM 46.40 40.82 64.76 42.44 66.0 x 4.03 SW 7.16 SW 10.29 SW No Not Reported No Precipitation     x x Not Reported Not Reported Not Reported 10.00 Clear
03/22/2019 10:11 AM 46.40 41.00 64.76 42.44 66.0 x 5.59 SW 7.83 SW 10.29 SW No Not Reported No Precipitation     x x Not Reported Not Reported Not Reported 10.00 Clear
03/22/2019 10:12 AM 46.40 41.00 64.76 42.44 66.0 x 6.26 SW 6.71 SW 10.29 SW No Not Reported No Precipitation     x x Not Reported Not Reported Not Reported 10.00 Clear
03/22/2019 10:13 AM 46.40 40.64 64.76 42.44 66.0 x 6.26 SW 9.62 SW 10.29 SW No Not Reported No Precipitation     x x Not Reported Not Reported Not Reported 10.00 Clear
03/22/2019 10:14 AM 46.22 40.28 64.76 42.44 64.0 x 6.71 SW 4.03 SW 10.29 SW No Not Reported No Precipitation     x x Not Reported Not Reported Not Reported 10.00 Clear
03/22/2019 10:15 AM 46.58 40.64 64.76 42.44 65.0 x 6.93 SW 5.82 SW 10.07 SW No Not Reported No Precipitation     x x Not Reported Not Reported Not Reported 10.00 Clear
03/22/2019 10:16 AM 46.40 40.46 64.76 42.44 65.0 x 5.82 SW 4.70 W 10.07 SW No Not Reported No Precipitation     x x Not Reported Not Reported Not Reported 10.00 Clear
03/22/2019 10:17 AM 46.58 41.00 64.76 42.44 65.0 x 5.82 SW 6.71 SW 10.07 SW No Not Reported No Precipitation     x x Not Reported Not Reported Not Reported 10.00 Clear
03/22/2019 10:18 AM 46.58 40.82 64.76 42.44 65.0 x 5.82 SW 5.59 SW 10.07 SW No Not Reported No Precipitation     x x Not Reported Not Reported Not Reported 10.00 Clear
03/22/2019 10:19 AM 46.58 40.64 64.76 42.44 65.0 x 5.82 SW 4.70 S 10.07 SW No Not Reported No Precipitation     x x Not Reported Not Reported Not Reported 10.00 Clear
03/22/2019 10:20 AM 46.76 40.64 64.76 42.44 64.0 x 5.37 SW 4.25 SW 10.07 SW No Not Reported No Precipitation     x x Not Reported Not Reported Not Reported 10.00 Clear
03/22/2019 10:21 AM 46.76